Wetterdaten: Dienstag, 28.06.2016
Datum Zeit Temp. A. Feuchte A. Luftdruck Regen Wind Richtung Richtung Sonnenschein ET UV Solar Taupunkt Windchill Windben Empfang
28.06.2016 00:00 15,1 C 85 % 1018,7 hPa 0,0 l/m 8,9 km/h (2 Bft) S-SW 200 0 min 0,000 mm 0,0 UV-I 0 W/m 12,6 C 13,7 C 14,5 km/h (3 Bft) 97,87 %
28.06.2016 00:02 15,1 C 85 % 1018,8 hPa 0,0 l/m 7,9 km/h (2 Bft) S-SW 192 0 min 0,000 mm 0,0 UV-I 0 W/m 12,6 C 14,3 C 11,3 km/h (2 Bft) 97,67 %
28.06.2016 00:04 15,1 C 85 % 1018,8 hPa 0,0 l/m 7,6 km/h (2 Bft) S-SW 209 0 min 0,000 mm 0,0 UV-I 0 W/m 12,6 C 14,4 C 11,3 km/h (2 Bft) 100,00 %
28.06.2016 00:06 15,2 C 85 % 1018,8 hPa 0,0 l/m 7,2 km/h (2 Bft) S-SW 196 0 min 0,000 mm 0,0 UV-I 0 W/m 12,7 C 14,8 C 9,7 km/h (2 Bft) 95,74 %
28.06.2016 00:08 15,2 C 85 % 1018,8 hPa 0,0 l/m 7,6 km/h (2 Bft) S-SW 206 0 min 0,000 mm 0,0 UV-I 0 W/m 12,7 C 14,5 C 14,5 km/h (3 Bft) 95,74 %
28.06.2016 00:10 15,2 C 85 % 1018,8 hPa 0,0 l/m 7,1 km/h (2 Bft) SW 215 0 min 0,000 mm 0,0 UV-I 0 W/m 12,7 C 14,8 C 12,9 km/h (3 Bft) 96,00 %
28.06.2016 00:12 15,2 C 85 % 1018,8 hPa 0,0 l/m 6,1 km/h (2 Bft) SW 224 0 min 0,000 mm 0,0 UV-I 0 W/m 12,7 C 15,2 C 9,7 km/h (2 Bft) 97,87 %
28.06.2016 00:14 15,2 C 85 % 1018,8 hPa 0,0 l/m 8,6 km/h (2 Bft) SW 236 0 min 0,000 mm 0,0 UV-I 0 W/m 12,7 C 14,0 C 12,9 km/h (3 Bft) 94,29 %
28.06.2016 00:16 15,2 C 85 % 1018,7 hPa 0,0 l/m 9,0 km/h (2 Bft) W-SW 239 0 min 0,000 mm 0,0 UV-I 0 W/m 12,7 C 13,8 C 12,9 km/h (3 Bft) 96,61 %
28.06.2016 00:18 15,2 C 85 % 1018,7 hPa 0,0 l/m 8,0 km/h (2 Bft) SW 218 0 min 0,000 mm 0,0 UV-I 0 W/m 12,7 C 14,3 C 14,5 km/h (3 Bft) 97,56 %
28.06.2016 00:20 15,2 C 85 % 1018,8 hPa 0,0 l/m 8,4 km/h (2 Bft) SW 227 0 min 0,000 mm 0,0 UV-I 0 W/m 12,7 C 14,1 C 14,5 km/h (3 Bft) 93,62 %
28.06.2016 00:22 15,2 C 86 % 1018,8 hPa 0,0 l/m 8,8 km/h (2 Bft) S-SW 211 0 min 0,000 mm 0,0 UV-I 0 W/m 12,9 C 13,9 C 12,9 km/h (3 Bft) 98,00 %
28.06.2016 00:24 15,2 C 86 % 1018,8 hPa 0,0 l/m 8,5 km/h (2 Bft) SW 226 0 min 0,000 mm 0,0 UV-I 0 W/m 12,9 C 14,1 C 14,5 km/h (3 Bft) 97,87 %
28.06.2016 00:26 15,2 C 86 % 1018,8 hPa 0,0 l/m 8,1 km/h (2 Bft) SW 231 0 min 0,000 mm 0,0 UV-I 0 W/m 12,9 C 14,3 C 12,9 km/h (3 Bft) 94,74 %
28.06.2016 00:28 15,2 C 86 % 1018,8 hPa 0,0 l/m 7,8 km/h (2 Bft) SW 223 0 min 0,000 mm 0,0 UV-I 0 W/m 12,9 C 14,4 C 12,9 km/h (3 Bft) 97,87 %
28.06.2016 00:30 15,1 C 86 % 1018,8 hPa 0,0 l/m 8,9 km/h (2 Bft) S-SW 212 0 min 0,000 mm 0,0 UV-I 0 W/m 12,8 C 13,7 C 14,5 km/h (3 Bft) 97,87 %
28.06.2016 00:32 15,2 C 86 % 1018,8 hPa 0,0 l/m 8,1 km/h (2 Bft) SW 233 0 min 0,000 mm 0,0 UV-I 0 W/m 12,9 C 14,3 C 12,9 km/h (3 Bft) 95,74 %
28.06.2016 00:34 15,2 C 86 % 1018,9 hPa 0,0 l/m 9,5 km/h (2 Bft) SW 217 0 min 0,000 mm 0,0 UV-I 0 W/m 12,9 C 13,6 C 12,9 km/h (3 Bft) 97,87 %
28.06.2016 00:36 15,1 C 86 % 1018,9 hPa 0,0 l/m 8,2 km/h (2 Bft) SW 225 0 min 0,000 mm 0,0 UV-I 0 W/m 12,8 C 14,1 C 12,9 km/h (3 Bft) 96,15 %
28.06.2016 00:38 15,2 C 86 % 1018,9 hPa 0,0 l/m 8,3 km/h (2 Bft) S-SW 213 0 min 0,000 mm 0,0 UV-I 0 W/m 12,9 C 14,2 C 11,3 km/h (2 Bft) 98,00 %
28.06.2016 00:40 15,2 C 86 % 1018,9 hPa 0,0 l/m 7,9 km/h (2 Bft) S-SW 196 0 min 0,000 mm 0,0 UV-I 0 W/m 12,9 C 14,4 C 12,9 km/h (3 Bft) 100,00 %
28.06.2016 00:42 15,1 C 86 % 1018,9 hPa 0,0 l/m 7,5 km/h (2 Bft) SW 229 0 min 0,000 mm 0,0 UV-I 0 W/m 12,8 C 14,5 C 11,3 km/h (2 Bft) 100,00 %
28.06.2016 00:44 15,2 C 86 % 1018,9 hPa 0,0 l/m 6,2 km/h (2 Bft) SW 225 0 min 0,000 mm 0,0 UV-I 0 W/m 12,9 C 15,2 C 11,3 km/h (2 Bft) 93,62 %
28.06.2016 00:46 15,2 C 86 % 1018,9 hPa 0,0 l/m 7,6 km/h (2 Bft) SW 226 0 min 0,000 mm 0,0 UV-I 0 W/m 12,9 C 14,5 C 12,9 km/h (3 Bft) 95,74 %
28.06.2016 00:48 15,2 C 86 % 1018,9 hPa 0,0 l/m 7,3 km/h (2 Bft) S-SW 200 0 min 0,000 mm 0,0 UV-I 0 W/m 12,9 C 14,7 C 12,9 km/h (3 Bft) 97,87 %
28.06.2016 00:50 15,2 C 86 % 1018,9 hPa 0,0 l/m 8,8 km/h (2 Bft) S-SW 205 0 min 0,000 mm 0,0 UV-I 0 W/m 12,9 C 13,9 C 12,9 km/h (3 Bft) 97,87 %
28.06.2016 00:52 15,2 C 86 % 1018,9 hPa 0,0 l/m 9,5 km/h (2 Bft) S 180 0 min 0,000 mm 0,0 UV-I 0 W/m 12,9 C 13,6 C 14,5 km/h (3 Bft) 100,00 %
28.06.2016 00:54 15,2 C 86 % 1018,9 hPa 0,0 l/m 8,3 km/h (2 Bft) SW 227 0 min 0,000 mm 0,0 UV-I 0 W/m 12,9 C 14,2 C 12,9 km/h (3 Bft) 100,00 %
28.06.2016 00:56 15,2 C 86 % 1018,8 hPa 0,0 l/m 8,2 km/h (2 Bft) SW 215 0 min 0,000 mm 0,0 UV-I 0 W/m 12,9 C 14,2 C 11,3 km/h (2 Bft) 100,00 %
28.06.2016 00:58 15,1 C 86 % 1018,9 hPa 0,0 l/m 8,5 km/h (2 Bft) SW 225 0 min 0,000 mm 0,0 UV-I 0 W/m 12,8 C 13,9 C 12,9 km/h (3 Bft) 100,00 %
28.06.2016 01:00 15,2 C 86 % 1018,9 hPa 0,0 l/m 8,9 km/h (2 Bft) SW 232 0 min 0,025 mm 0,0 UV-I 0 W/m 12,9 C 13,9 C 12,9 km/h (3 Bft) 100,00 %
28.06.2016 01:02 15,2 C 86 % 1018,9 hPa 0,0 l/m 8,0 km/h (2 Bft) SW 224 0 min 0,000 mm 0,0 UV-I 0 W/m 12,9 C 14,3 C 11,3 km/h (2 Bft) 100,00 %
28.06.2016 01:04 15,2 C 86 % 1018,8 hPa 0,0 l/m 8,2 km/h (2 Bft) S-SW 199 0 min 0,000 mm 0,0 UV-I 0 W/m 12,9 C 14,2 C 14,5 km/h (3 Bft) 100,00 %
28.06.2016 01:06 15,2 C 86 % 1018,8 hPa 0,0 l/m 7,6 km/h (2 Bft) SW 223 0 min 0,000 mm 0,0 UV-I 0 W/m 12,9 C 14,5 C 14,5 km/h (3 Bft) 98,00 %
28.06.2016 01:08 15,2 C 86 % 1018,8 hPa 0,0 l/m 7,6 km/h (2 Bft) SW 232 0 min 0,000 mm 0,0 UV-I 0 W/m 12,9 C 14,5 C 11,3 km/h (2 Bft) 100,00 %
28.06.2016 01:10 15,2 C 86 % 1018,9 hPa 0,0 l/m 7,4 km/h (2 Bft) SW 225 0 min 0,000 mm 0,0 UV-I 0 W/m 12,9 C 14,6 C 11,3 km/h (2 Bft) 97,87 %
28.06.2016 01:12 15,2 C 86 % 1018,8 hPa 0,0 l/m 6,3 km/h (2 Bft) SW 232 0 min 0,000 mm 0,0 UV-I 0 W/m 12,9 C 15,2 C 9,7 km/h (2 Bft) 100,00 %
28.06.2016 01:14 15,2 C 86 % 1018,9 hPa 0,0 l/m 6,9 km/h (2 Bft) SW 215 0 min 0,000 mm 0,0 UV-I 0 W/m 12,9 C 14,9 C 9,7 km/h (2 Bft) 100,00 %
28.06.2016 01:16 15,2 C 86 % 1018,9 hPa 0,0 l/m 8,0 km/h (2 Bft) W-SW 239 0 min 0,000 mm 0,0 UV-I 0 W/m 12,9 C 14,3 C 11,3 km/h (2 Bft) 100,00 %
28.06.2016 01:18 15,2 C 86 % 1018,9 hPa 0,0 l/m 8,2 km/h (2 Bft) SW 217 0 min 0,000 mm 0,0 UV-I 0 W/m 12,9 C 14,2 C 12,9 km/h (3 Bft) 100,00 %
28.06.2016 01:20 15,2 C 86 % 1018,9 hPa 0,0 l/m 8,2 km/h (2 Bft) SW 233 0 min 0,000 mm 0,0 UV-I 0 W/m 12,9 C 14,2 C 11,3 km/h (2 Bft) 100,00 %
28.06.2016 01:22 15,2 C 86 % 1018,9 hPa 0,0 l/m 7,1 km/h (2 Bft) SW 221 0 min 0,000 mm 0,0 UV-I 0 W/m 12,9 C 14,8 C 11,3 km/h (2 Bft) 100,00 %
28.06.2016 01:24 15,2 C 86 % 1018,9 hPa 0,0 l/m 6,7 km/h (2 Bft) W-SW 250 0 min 0,000 mm 0,0 UV-I 0 W/m 12,9 C 15,0 C 11,3 km/h (2 Bft) 97,87 %
28.06.2016 01:26 15,2 C 86 % 1018,9 hPa 0,0 l/m 6,6 km/h (2 Bft) SW 225 0 min 0,000 mm 0,0 UV-I 0 W/m 12,9 C 15,1 C 9,7 km/h (2 Bft) 100,00 %
28.06.2016 01:28 15,2 C 86 % 1018,9 hPa 0,0 l/m 6,7 km/h (2 Bft) SW 236 0 min 0,000 mm 0,0 UV-I 0 W/m 12,9 C 15,0 C 9,7 km/h (2 Bft) 100,00 %
28.06.2016 01:30 15,2 C 86 % 1018,9 hPa 0,0 l/m 6,9 km/h (2 Bft) S-SW 205 0 min 0,000 mm 0,0 UV-I 0 W/m 12,9 C 14,9 C 11,3 km/h (2 Bft) 100,00 %
28.06.2016 01:32 15,2 C 86 % 1018,8 hPa 0,0 l/m 7,7 km/h (2 Bft) SW 234 0 min 0,000 mm 0,0 UV-I 0 W/m 12,9 C 14,5 C 11,3 km/h (2 Bft) 97,87 %
28.06.2016 01:34 15,1 C 86 % 1018,8 hPa 0,0 l/m 9,2 km/h (2 Bft) SW 225 0 min 0,000 mm 0,0 UV-I 0 W/m 12,8 C 13,6 C 14,5 km/h (3 Bft) 100,00 %
28.06.2016 01:36 15,2 C 86 % 1018,8 hPa 0,0 l/m 8,1 km/h (2 Bft) SW 226 0 min 0,000 mm 0,0 UV-I 0 W/m 12,9 C 14,3 C 11,3 km/h (2 Bft) 98,00 %
28.06.2016 01:38 15,2 C 86 % 1018,8 hPa 0,0 l/m 8,2 km/h (2 Bft) S-SW 212 0 min 0,000 mm 0,0 UV-I 0 W/m 12,9 C 14,2 C 11,3 km/h (2 Bft) 100,00 %
28.06.2016 01:40 15,1 C 87 % 1018,8 hPa 0,0 l/m 7,6 km/h (2 Bft) SW 232 0 min 0,000 mm 0,0 UV-I 0 W/m 13,0 C 14,4 C 9,7 km/h (2 Bft) 100,00 %
28.06.2016 01:42 15,1 C 87 % 1018,8 hPa 0,0 l/m 7,2 km/h (2 Bft) S-SW 198 0 min 0,000 mm 0,0 UV-I 0 W/m 13,0 C 14,6 C 11,3 km/h (2 Bft) 100,00 %
28.06.2016 01:44 15,1 C 86 % 1018,8 hPa 0,0 l/m 7,3 km/h (2 Bft) SW 224 0 min 0,000 mm 0,0 UV-I 0 W/m 12,8 C 14,6 C 9,7 km/h (2 Bft) 100,00 %
28.06.2016 01:46 15,1 C 87 % 1018,8 hPa 0,0 l/m 8,1 km/h (2 Bft) SW 220 0 min 0,000 mm 0,0 UV-I 0 W/m 13,0 C 14,2 C 12,9 km/h (3 Bft) 97,87 %
28.06.2016 01:48 15,1 C 87 % 1018,9 hPa 0,0 l/m 8,6 km/h (2 Bft) S-SW 200 0 min 0,000 mm 0,0 UV-I 0 W/m 13,0 C 13,9 C 12,9 km/h (3 Bft) 97,87 %
28.06.2016 01:50 15,1 C 87 % 1018,9 hPa 0,0 l/m 7,6 km/h (2 Bft) SW 214 0 min 0,000 mm 0,0 UV-I 0 W/m 13,0 C 14,4 C 12,9 km/h (3 Bft) 95,74 %
28.06.2016 01:52 15,1 C 87 % 1018,8 hPa 0,0 l/m 7,7 km/h (2 Bft) S-SW 207 0 min 0,000 mm 0,0 UV-I 0 W/m 13,0 C 14,4 C 11,3 km/h (2 Bft) 100,00 %
28.06.2016 01:54 15,1 C 87 % 1018,8 hPa 0,0 l/m 6,5 km/h (2 Bft) SW 218 0 min 0,000 mm 0,0 UV-I 0 W/m 13,0 C 15,1 C 9,7 km/h (2 Bft) 97,87 %
28.06.2016 01:56 15,1 C 87 % 1018,9 hPa 0,0 l/m 7,5 km/h (2 Bft) SW 230 0 min 0,000 mm 0,0 UV-I 0 W/m 13,0 C 14,5 C 11,3 km/h (2 Bft) 97,87 %
28.06.2016 01:58 15,1 C 87 % 1018,9 hPa 0,0 l/m 7,3 km/h (2 Bft) SW 214 0 min 0,000 mm 0,0 UV-I 0 W/m 13,0 C 14,6 C 11,3 km/h (2 Bft) 100,00 %
28.06.2016 02:00 15,1 C 87 % 1018,9 hPa 0,0 l/m 6,9 km/h (2 Bft) SW 231 0 min 0,026 mm 0,0 UV-I 0 W/m 13,0 C 14,8 C 9,7 km/h (2 Bft) 98,00 %
28.06.2016 02:02 15,1 C 87 % 1018,9 hPa 0,0 l/m 6,5 km/h (2 Bft) W-SW 245 0 min 0,000 mm 0,0 UV-I 0 W/m 13,0 C 15,1 C 9,7 km/h (2 Bft) 100,00 %
28.06.2016 02:04 15,1 C 87 % 1018,9 hPa 0,0 l/m 6,4 km/h (2 Bft) W-SW 242 0 min 0,000 mm 0,0 UV-I 0 W/m 13,0 C 15,1 C 9,7 km/h (2 Bft) 100,00 %
28.06.2016 02:06 15,1 C 87 % 1018,8 hPa 0,0 l/m 6,6 km/h (2 Bft) SW 230 0 min 0,000 mm 0,0 UV-I 0 W/m 13,0 C 15,0 C 9,7 km/h (2 Bft) 98,00 %
28.06.2016 02:08 15,1 C 87 % 1018,8 hPa 0,0 l/m 6,0 km/h (2 Bft) SW 217 0 min 0,000 mm 0,0 UV-I 0 W/m 13,0 C 15,1 C 8,0 km/h (2 Bft) 95,74 %
28.06.2016 02:10 15,1 C 87 % 1018,8 hPa 0,0 l/m 5,7 km/h (1 Bft) S-SW 208 0 min 0,000 mm 0,0 UV-I 0 W/m 13,0 C 15,1 C 8,0 km/h (2 Bft) 95,74 %
28.06.2016 02:12 15,1 C 87 % 1018,9 hPa 0,0 l/m 6,0 km/h (2 Bft) SW 228 0 min 0,000 mm 0,0 UV-I 0 W/m 13,0 C 15,1 C 8,0 km/h (2 Bft) 95,74 %
28.06.2016 02:14 15,1 C 87 % 1018,9 hPa 0,0 l/m 5,6 km/h (1 Bft) SW 219 0 min 0,000 mm 0,0 UV-I 0 W/m 13,0 C 15,1 C 8,0 km/h (2 Bft) 93,62 %
28.06.2016 02:16 15,1 C 87 % 1018,9 hPa 0,0 l/m 5,2 km/h (1 Bft) SW 225 0 min 0,000 mm 0,0 UV-I 0 W/m 13,0 C 15,1 C 8,0 km/h (2 Bft) 95,74 %
28.06.2016 02:18 15,1 C 87 % 1018,9 hPa 0,0 l/m 5,4 km/h (1 Bft) SW 230 0 min 0,000 mm 0,0 UV-I 0 W/m 13,0 C 15,1 C 8,0 km/h (2 Bft) 96,00 %
28.06.2016 02:20 15,1 C 87 % 1018,8 hPa 0,0 l/m 5,7 km/h (1 Bft) SW 216 0 min 0,000 mm 0,0 UV-I 0 W/m 13,0 C 15,1 C 11,3 km/h (2 Bft) 95,83 %
28.06.2016 02:22 15,1 C 87 % 1018,8 hPa 0,0 l/m 6,5 km/h (2 Bft) SW 232 0 min 0,000 mm 0,0 UV-I 0 W/m 13,0 C 15,1 C 9,7 km/h (2 Bft) 97,87 %
28.06.2016 02:24 15,1 C 87 % 1018,8 hPa 0,0 l/m 4,7 km/h (1 Bft) SW 236 0 min 0,000 mm 0,0 UV-I 0 W/m 13,0 C 15,1 C 6,4 km/h (2 Bft) 97,87 %
28.06.2016 02:26 15,0 C 87 % 1018,8 hPa 0,0 l/m 5,0 km/h (1 Bft) SW 227 0 min 0,000 mm 0,0 UV-I 0 W/m 12,9 C 15,0 C 8,0 km/h (2 Bft) 97,87 %
28.06.2016 02:28 15,0 C 87 % 1018,8 hPa 0,0 l/m 5,5 km/h (1 Bft) S-SW 208 0 min 0,000 mm 0,0 UV-I 0 W/m 12,9 C 15,0 C 6,4 km/h (2 Bft) 97,87 %
28.06.2016 02:30 15,0 C 87 % 1018,8 hPa 0,0 l/m 5,4 km/h (1 Bft) SW 232 0 min 0,000 mm 0,0 UV-I 0 W/m 12,9 C 15,0 C 8,0 km/h (2 Bft) 93,62 %
28.06.2016 02:32 15,0 C 87 % 1018,8 hPa 0,0 l/m 6,2 km/h (2 Bft) SW 233 0 min 0,000 mm 0,0 UV-I 0 W/m 12,9 C 15,0 C 8,0 km/h (2 Bft) 97,87 %
28.06.2016 02:34 15,1 C 88 % 1018,8 hPa 0,0 l/m 4,6 km/h (1 Bft) S-SW 213 0 min 0,000 mm 0,0 UV-I 0 W/m 13,1 C 15,1 C 6,4 km/h (2 Bft) 97,87 %
28.06.2016 02:36 15,0 C 88 % 1018,8 hPa 0,0 l/m 4,6 km/h (1 Bft) SW 236 0 min 0,000 mm 0,0 UV-I 0 W/m 13,0 C 15,0 C 8,0 km/h (2 Bft) 95,74 %
28.06.2016 02:38 15,0 C 88 % 1018,9 hPa 0,0 l/m 4,7 km/h (1 Bft) SW 227 0 min 0,000 mm 0,0 UV-I 0 W/m 13,0 C 15,0 C 8,0 km/h (2 Bft) 97,87 %
28.06.2016 02:40 15,0 C 88 % 1018,8 hPa 0,0 l/m 4,5 km/h (1 Bft) SW 227 0 min 0,000 mm 0,0 UV-I 0 W/m 13,0 C 15,0 C 6,4 km/h (2 Bft) 97,87 %
28.06.2016 02:42 15,0 C 88 % 1018,9 hPa 0,0 l/m 4,7 km/h (1 Bft) S-SW 192 0 min 0,000 mm 0,0 UV-I 0 W/m 13,0 C 15,0 C 6,4 km/h (2 Bft) 100,00 %
28.06.2016 02:44 15,0 C 88 % 1018,9 hPa 0,0 l/m 5,1 km/h (1 Bft) W-SW 238 0 min 0,000 mm 0,0 UV-I 0 W/m 13,0 C 15,0 C 8,0 km/h (2 Bft) 97,87 %
28.06.2016 02:46 15,0 C 88 % 1018,9 hPa 0,0 l/m 5,8 km/h (2 Bft) SW 235 0 min 0,000 mm 0,0 UV-I 0 W/m 13,0 C 15,0 C 8,0 km/h (2 Bft) 98,00 %
28.06.2016 02:48 15,0 C 88 % 1018,9 hPa 0,0 l/m 4,7 km/h (1 Bft) S 188 0 min 0,000 mm 0,0 UV-I 0 W/m 13,0 C 15,0 C 6,4 km/h (2 Bft) 100,00 %
28.06.2016 02:50 15,0 C 88 % 1018,9 hPa 0,0 l/m 5,0 km/h (1 Bft) SW 223 0 min 0,000 mm 0,0 UV-I 0 W/m 13,0 C 15,0 C 6,4 km/h (2 Bft) 100,00 %
28.06.2016 02:52 15,0 C 88 % 1018,9 hPa 0,0 l/m 5,7 km/h (1 Bft) SW 235 0 min 0,000 mm 0,0 UV-I 0 W/m 13,0 C 15,0 C 8,0 km/h (2 Bft) 97,87 %
28.06.2016 02:54 15,0 C 88 % 1018,9 hPa 0,0 l/m 5,4 km/h (1 Bft) S 188 0 min 0,000 mm 0,0 UV-I 0 W/m 13,0 C 15,0 C 8,0 km/h (2 Bft) 100,00 %
28.06.2016 02:56 15,0 C 88 % 1018,8 hPa 0,0 l/m 4,6 km/h (1 Bft) S-SW 207 0 min 0,000 mm 0,0 UV-I 0 W/m 13,0 C 15,0 C 6,4 km/h (2 Bft) 100,00 %
28.06.2016 02:58 15,0 C 88 % 1018,8 hPa 0,0 l/m 5,5 km/h (1 Bft) S-SW 206 0 min 0,000 mm 0,0 UV-I 0 W/m 13,0 C 15,0 C 8,0 km/h (2 Bft) 100,00 %
28.06.2016 03:00 15,0 C 87 % 1018,8 hPa 0,0 l/m 4,7 km/h (1 Bft) S 180 0 min 0,000 mm 0,0 UV-I 0 W/m 12,9 C 15,0 C 6,4 km/h (2 Bft) 100,00 %
28.06.2016 03:02 15,0 C 87 % 1018,8 hPa 0,0 l/m 5,2 km/h (1 Bft) SW 231 0 min 0,000 mm 0,0 UV-I 0 W/m 12,9 C 15,0 C 8,0 km/h (2 Bft) 97,87 %
28.06.2016 03:04 15,0 C 87 % 1018,8 hPa 0,0 l/m 5,2 km/h (1 Bft) SW 226 0 min 0,000 mm 0,0 UV-I 0 W/m 12,9 C 15,0 C 9,7 km/h (2 Bft) 96,00 %
28.06.2016 03:06 15,1 C 87 % 1018,8 hPa 0,0 l/m 5,9 km/h (2 Bft) S-SW 200 0 min 0,000 mm 0,0 UV-I 0 W/m 13,0 C 15,1 C 8,0 km/h (2 Bft) 100,00 %
28.06.2016 03:08 15,0 C 87 % 1018,8 hPa 0,0 l/m 6,1 km/h (2 Bft) SW 236 0 min 0,000 mm 0,0 UV-I 0 W/m 12,9 C 15,0 C 9,7 km/h (2 Bft) 100,00 %
28.06.2016 03:10 15,1 C 87 % 1018,7 hPa 0,0 l/m 5,6 km/h (1 Bft) S 188 0 min 0,000 mm 0,0 UV-I 0 W/m 13,0 C 15,1 C 8,0 km/h (2 Bft) 100,00 %
28.06.2016 03:12 15,1 C 87 % 1018,8 hPa 0,0 l/m 5,8 km/h (2 Bft) SW 225 0 min 0,000 mm 0,0 UV-I 0 W/m 13,0 C 15,1 C 9,7 km/h (2 Bft) 100,00 %
28.06.2016 03:14 15,1 C 87 % 1018,7 hPa 0,0 l/m 5,5 km/h (1 Bft) SW 235 0 min 0,000 mm 0,0 UV-I 0 W/m 13,0 C 15,1 C 9,7 km/h (2 Bft) 97,87 %
28.06.2016 03:16 15,1 C 87 % 1018,7 hPa 0,0 l/m 6,5 km/h (2 Bft) SW 236 0 min 0,000 mm 0,0 UV-I 0 W/m 13,0 C 15,1 C 11,3 km/h (2 Bft) 98,00 %
28.06.2016 03:18 15,1 C 87 % 1018,7 hPa 0,0 l/m 5,8 km/h (2 Bft) SW 234 0 min 0,000 mm 0,0 UV-I 0 W/m 13,0 C 15,1 C 8,0 km/h (2 Bft) 97,37 %
28.06.2016 03:20 15,1 C 87 % 1018,8 hPa 0,0 l/m 6,9 km/h (2 Bft) SW 235 0 min 0,000 mm 0,0 UV-I 0 W/m 13,0 C 14,8 C 9,7 km/h (2 Bft) 100,00 %
28.06.2016 03:22 15,1 C 87 % 1018,8 hPa 0,0 l/m 6,4 km/h (2 Bft) S-SW 192 0 min 0,000 mm 0,0 UV-I 0 W/m 13,0 C 15,1 C 8,0 km/h (2 Bft) 100,00 %
28.06.2016 03:24 15,1 C 87 % 1018,7 hPa 0,0 l/m 5,4 km/h (1 Bft) S-SW 202 0 min 0,000 mm 0,0 UV-I 0 W/m 13,0 C 15,1 C 9,7 km/h (2 Bft) 100,00 %
28.06.2016 03:26 15,1 C 86 % 1018,7 hPa 0,0 l/m 7,1 km/h (2 Bft) S-SW 208 0 min 0,000 mm 0,0 UV-I 0 W/m 12,8 C 14,7 C 11,3 km/h (2 Bft) 100,00 %
28.06.2016 03:28 15,1 C 86 % 1018,7 hPa 0,0 l/m 6,3 km/h (2 Bft) SW 231 0 min 0,000 mm 0,0 UV-I 0 W/m 12,8 C 15,1 C 11,3 km/h (2 Bft) 100,00 %
28.06.2016 03:30 15,1 C 86 % 1018,7 hPa 0,0 l/m 4,9 km/h (1 Bft) S-SW 202 0 min 0,000 mm 0,0 UV-I 0 W/m 12,8 C 15,1 C 9,7 km/h (2 Bft) 100,00 %
28.06.2016 03:32 15,1 C 86 % 1018,7 hPa 0,0 l/m 5,1 km/h (1 Bft) S-SO 159 0 min 0,000 mm 0,0 UV-I 0 W/m 12,8 C 15,1 C 8,0 km/h (2 Bft) 100,00 %
28.06.2016 03:34 15,1 C 86 % 1018,7 hPa 0,0 l/m 5,5 km/h (1 Bft) SW 235 0 min 0,000 mm 0,0 UV-I 0 W/m 12,8 C 15,1 C 8,0 km/h (2 Bft) 100,00 %
28.06.2016 03:36 15,1 C 86 % 1018,7 hPa 0,0 l/m 5,2 km/h (1 Bft) S 187 0 min 0,000 mm 0,0 UV-I 0 W/m 12,8 C 15,1 C 8,0 km/h (2 Bft) 97,87 %
28.06.2016 03:38 15,1 C 86 % 1018,7 hPa 0,0 l/m 5,2 km/h (1 Bft) S-SW 203 0 min 0,000 mm 0,0 UV-I 0 W/m 12,8 C 15,1 C 8,0 km/h (2 Bft) 97,87 %
28.06.2016 03:40 15,1 C 86 % 1018,6 hPa 0,0 l/m 5,4 km/h (1 Bft) S 184 0 min 0,000 mm 0,0 UV-I 0 W/m 12,8 C 15,1 C 11,3 km/h (2 Bft) 100,00 %
28.06.2016 03:42 15,1 C 86 % 1018,6 hPa 0,0 l/m 5,3 km/h (1 Bft) W-SW 240 0 min 0,000 mm 0,0 UV-I 0 W/m 12,8 C 15,1 C 9,7 km/h (2 Bft) 95,74 %
28.06.2016 03:44 15,0 C 86 % 1018,6 hPa 0,0 l/m 5,6 km/h (1 Bft) S 188 0 min 0,000 mm 0,0 UV-I 0 W/m 12,7 C 15,0 C 9,7 km/h (2 Bft) 100,00 %
28.06.2016 03:46 15,0 C 86 % 1018,6 hPa 0,0 l/m 4,7 km/h (1 Bft) S 180 0 min 0,000 mm 0,0 UV-I 0 W/m 12,7 C 15,0 C 8,0 km/h (2 Bft) 100,00 %
28.06.2016 03:48 15,0 C 86 % 1018,5 hPa 0,0 l/m 4,9 km/h (1 Bft) S-SW 207 0 min 0,000 mm 0,0 UV-I 0 W/m 12,7 C 15,0 C 6,4 km/h (2 Bft) 98,00 %
28.06.2016 03:50 15,0 C 86 % 1018,6 hPa 0,0 l/m 5,2 km/h (1 Bft) S-SW 209 0 min 0,000 mm 0,0 UV-I 0 W/m 12,7 C 15,0 C 9,7 km/h (2 Bft) 97,87 %
28.06.2016 03:52 14,9 C 86 % 1018,6 hPa 0,0 l/m 6,4 km/h (2 Bft) W-SW 240 0 min 0,000 mm 0,0 UV-I 0 W/m 12,6 C 14,9 C 9,7 km/h (2 Bft) 100,00 %
28.06.2016 03:54 14,9 C 87 % 1018,6 hPa 0,0 l/m 6,6 km/h (2 Bft) SW 229 0 min 0,000 mm 0,0 UV-I 0 W/m 12,8 C 14,8 C 8,0 km/h (2 Bft) 100,00 %
28.06.2016 03:56 14,9 C 87 % 1018,6 hPa 0,0 l/m 7,1 km/h (2 Bft) S-SW 212 0 min 0,000 mm 0,0 UV-I 0 W/m 12,8 C 14,5 C 11,3 km/h (2 Bft) 97,87 %
28.06.2016 03:58 14,9 C 87 % 1018,6 hPa 0,0 l/m 8,7 km/h (2 Bft) SW 231 0 min 0,000 mm 0,0 UV-I 0 W/m 12,8 C 13,6 C 14,5 km/h (3 Bft) 100,00 %
28.06.2016 04:00 14,9 C 87 % 1018,6 hPa 0,0 l/m 6,7 km/h (2 Bft) W-SW 243 0 min 0,025 mm 0,0 UV-I 0 W/m 12,8 C 14,7 C 9,7 km/h (2 Bft) 100,00 %
28.06.2016 04:02 14,9 C 87 % 1018,5 hPa 0,0 l/m 8,2 km/h (2 Bft) SW 235 0 min 0,000 mm 0,0 UV-I 0 W/m 12,8 C 13,9 C 14,5 km/h (3 Bft) 100,00 %
28.06.2016 04:04 14,9 C 87 % 1018,5 hPa 0,0 l/m 8,1 km/h (2 Bft) SW 223 0 min 0,000 mm 0,0 UV-I 0 W/m 12,8 C 13,9 C 12,9 km/h (3 Bft) 100,00 %
28.06.2016 04:06 14,9 C 87 % 1018,5 hPa 0,0 l/m 8,5 km/h (2 Bft) SW 221 0 min 0,000 mm 0,0 UV-I 0 W/m 12,8 C 13,7 C 12,9 km/h (3 Bft) 95,74 %
28.06.2016 04:08 14,9 C 87 % 1018,5 hPa 0,0 l/m 7,2 km/h (2 Bft) W-SW 244 0 min 0,000 mm 0,0 UV-I 0 W/m 12,8 C 14,4 C 11,3 km/h (2 Bft) 95,74 %
28.06.2016 04:10 14,9 C 87 % 1018,5 hPa 0,0 l/m 6,3 km/h (2 Bft) SW 217 0 min 0,000 mm 0,0 UV-I 0 W/m 12,8 C 14,9 C 8,0 km/h (2 Bft) 97,87 %
28.06.2016 04:12 14,8 C 87 % 1018,5 hPa 0,0 l/m 5,0 km/h (1 Bft) SW 231 0 min 0,000 mm 0,0 UV-I 0 W/m 12,7 C 14,8 C 8,0 km/h (2 Bft) 95,83 %
28.06.2016 04:14 14,8 C 87 % 1018,4 hPa 0,0 l/m 5,6 km/h (1 Bft) SW 232 0 min 0,000 mm 0,0 UV-I 0 W/m 12,7 C 14,8 C 6,4 km/h (2 Bft) 96,00 %
28.06.2016 04:16 14,8 C 87 % 1018,4 hPa 0,0 l/m 5,5 km/h (1 Bft) W-SW 257 0 min 0,000 mm 0,0 UV-I 0 W/m 12,7 C 14,8 C 8,0 km/h (2 Bft) 97,44 %
28.06.2016 04:18 14,8 C 87 % 1018,5 hPa 0,0 l/m 5,8 km/h (2 Bft) S-SW 209 0 min 0,000 mm 0,0 UV-I 0 W/m 12,7 C 14,8 C 8,0 km/h (2 Bft) 97,87 %
28.06.2016 04:20 14,8 C 87 % 1018,4 hPa 0,0 l/m 4,9 km/h (1 Bft) SW 225 0 min 0,000 mm 0,0 UV-I 0 W/m 12,7 C 14,8 C 6,4 km/h (2 Bft) 93,88 %
28.06.2016 04:22 14,8 C 88 % 1018,4 hPa 0,0 l/m 5,0 km/h (1 Bft) SW 229 0 min 0,000 mm 0,0 UV-I 0 W/m 12,8 C 14,8 C 8,0 km/h (2 Bft) 92,00 %
28.06.2016 04:24 14,8 C 88 % 1018,5 hPa 0,0 l/m 6,4 km/h (2 Bft) SW 225 0 min 0,000 mm 0,0 UV-I 0 W/m 12,8 C 14,8 C 9,7 km/h (2 Bft) 93,62 %
28.06.2016 04:26 14,8 C 88 % 1018,5 hPa 0,0 l/m 6,2 km/h (2 Bft) SW 219 0 min 0,000 mm 0,0 UV-I 0 W/m 12,8 C 14,8 C 11,3 km/h (2 Bft) 95,74 %
28.06.2016 04:28 14,8 C 88 % 1018,5 hPa 0,0 l/m 6,4 km/h (2 Bft) W-SW 242 0 min 0,000 mm 0,0 UV-I 0 W/m 12,8 C 14,8 C 9,7 km/h (2 Bft) 97,87 %
28.06.2016 04:30 14,8 C 88 % 1018,4 hPa 0,0 l/m 6,3 km/h (2 Bft) SW 227 0 min 0,000 mm 0,0 UV-I 0 W/m 12,8 C 14,8 C 11,3 km/h (2 Bft) 95,74 %
28.06.2016 04:32 14,8 C 88 % 1018,5 hPa 0,0 l/m 6,8 km/h (2 Bft) SW 234 0 min 0,000 mm 0,0 UV-I 0 W/m 12,8 C 14,6 C 14,5 km/h (3 Bft) 95,74 %
28.06.2016 04:34 14,8 C 88 % 1018,5 hPa 0,0 l/m 8,4 km/h (2 Bft) W-SW 238 0 min 0,000 mm 0,0 UV-I 0 W/m 12,8 C 13,7 C 14,5 km/h (3 Bft) 97,87 %
28.06.2016 04:36 14,7 C 88 % 1018,5 hPa 0,0 l/m 8,8 km/h (2 Bft) W 261 0 min 0,000 mm 0,0 UV-I 0 W/m 12,7 C 13,4 C 14,5 km/h (3 Bft) 97,87 %
28.06.2016 04:38 14,7 C 88 % 1018,4 hPa 0,0 l/m 7,0 km/h (2 Bft) SW 230 0 min 0,000 mm 0,0 UV-I 0 W/m 12,7 C 14,4 C 9,7 km/h (2 Bft) 100,00 %
28.06.2016 04:40 14,7 C 88 % 1018,5 hPa 0,0 l/m 6,6 km/h (2 Bft) W-SW 244 0 min 0,000 mm 0,0 UV-I 0 W/m 12,7 C 14,6 C 12,9 km/h (3 Bft) 97,87 %
28.06.2016 04:42 14,7 C 88 % 1018,5 hPa 0,0 l/m 6,3 km/h (2 Bft) W-SW 243 0 min 0,000 mm 0,0 UV-I 0 W/m 12,7 C 14,7 C 9,7 km/h (2 Bft) 100,00 %
28.06.2016 04:44 14,7 C 88 % 1018,5 hPa 0,0 l/m 7,4 km/h (2 Bft) W-SW 237 0 min 0,000 mm 0,0 UV-I 0 W/m 12,7 C 14,1 C 11,3 km/h (2 Bft) 98,00 %
28.06.2016 04:46 14,7 C 88 % 1018,4 hPa 0,0 l/m 7,0 km/h (2 Bft) SW 234 0 min 0,000 mm 0,0 UV-I 0 W/m 12,7 C 14,4 C 11,3 km/h (2 Bft) 100,00 %
28.06.2016 04:48 14,7 C 88 % 1018,4 hPa 0,0 l/m 6,4 km/h (2 Bft) W-SW 245 0 min 0,000 mm 0,0 UV-I 0 W/m 12,7 C 14,7 C 9,7 km/h (2 Bft) 97,87 %
28.06.2016 04:50 14,7 C 88 % 1018,4 hPa 0,0 l/m 7,3 km/h (2 Bft) SW 227 0 min 0,000 mm 0,0 UV-I 0 W/m 12,7 C 14,2 C 12,9 km/h (3 Bft) 100,00 %
28.06.2016 04:52 14,7 C 88 % 1018,5 hPa 0,0 l/m 7,1 km/h (2 Bft) SW 232 0 min 0,000 mm 0,0 UV-I 0 W/m 12,7 C 14,3 C 9,7 km/h (2 Bft) 97,87 %
28.06.2016 04:54 14,7 C 88 % 1018,5 hPa 0,0 l/m 6,0 km/h (2 Bft) W-SW 242 0 min 0,000 mm 0,0 UV-I 0 W/m 12,7 C 14,7 C 11,3 km/h (2 Bft) 97,87 %
28.06.2016 04:56 14,7 C 88 % 1018,4 hPa 0,0 l/m 5,9 km/h (2 Bft) SW 236 0 min 0,000 mm 0,0 UV-I 0 W/m 12,7 C 14,7 C 8,0 km/h (2 Bft) 100,00 %
28.06.2016 04:58 14,7 C 89 % 1018,4 hPa 0,0 l/m 7,3 km/h (2 Bft) SW 235 0 min 0,000 mm 0,0 UV-I 0 W/m 12,9 C 14,2 C 9,7 km/h (2 Bft) 100,00 %
28.06.2016 05:00 14,7 C 89 % 1018,4 hPa 0,0 l/m 7,2 km/h (2 Bft) SW 229 0 min 0,026 mm 0,0 UV-I 0 W/m 12,9 C 14,2 C 9,7 km/h (2 Bft) 100,00 %
28.06.2016 05:02 14,7 C 89 % 1018,4 hPa 0,0 l/m 7,1 km/h (2 Bft) SW 233 0 min 0,000 mm 0,0 UV-I 0 W/m 12,9 C 14,3 C 9,7 km/h (2 Bft) 100,00 %
28.06.2016 05:04 14,7 C 89 % 1018,4 hPa 0,0 l/m 6,7 km/h (2 Bft) SW 228 0 min 0,000 mm 0,0 UV-I 0 W/m 12,9 C 14,5 C 11,3 km/h (2 Bft) 100,00 %
28.06.2016 05:06 14,7 C 89 % 1018,4 hPa 0,0 l/m 7,1 km/h (2 Bft) W-SW 246 0 min 0,000 mm 0,0 UV-I 0 W/m 12,9 C 14,3 C 9,7 km/h (2 Bft) 100,00 %
28.06.2016 05:08 14,7 C 89 % 1018,4 hPa 0,0 l/m 7,1 km/h (2 Bft) SW 234 0 min 0,000 mm 0,0 UV-I 5 W/m 12,9 C 14,3 C 12,9 km/h (3 Bft) 97,87 %
28.06.2016 05:10 14,7 C 89 % 1018,4 hPa 0,0 l/m 6,6 km/h (2 Bft) SW 223 0 min 0,000 mm 0,0 UV-I 5 W/m 12,9 C 14,6 C 11,3 km/h (2 Bft) 96,00 %
28.06.2016 05:12 14,7 C 89 % 1018,4 hPa 0,0 l/m 7,3 km/h (2 Bft) W-SW 241 0 min 0,000 mm 0,0 UV-I 6 W/m 12,9 C 14,2 C 11,3 km/h (2 Bft) 100,00 %
28.06.2016 05:14 14,7 C 88 % 1018,4 hPa 0,0 l/m 8,4 km/h (2 Bft) SW 225 0 min 0,000 mm 0,0 UV-I 7 W/m 12,7 C 13,6 C 12,9 km/h (3 Bft) 100,00 %
28.06.2016 05:16 14,7 C 89 % 1018,4 hPa 0,0 l/m 7,2 km/h (2 Bft) W-SW 238 0 min 0,000 mm 0,0 UV-I 8 W/m 12,9 C 14,2 C 11,3 km/h (2 Bft) 100,00 %
28.06.2016 05:18 14,7 C 88 % 1018,4 hPa 0,0 l/m 7,8 km/h (2 Bft) SW 230 0 min 0,000 mm 0,0 UV-I 10 W/m 12,7 C 13,9 C 11,3 km/h (2 Bft) 100,00 %
28.06.2016 05:20 14,7 C 88 % 1018,4 hPa 0,0 l/m 9,9 km/h (2 Bft) SW 215 2 min 0,000 mm 0,0 UV-I 11 W/m 12,7 C 12,8 C 14,5 km/h (3 Bft) 100,00 %
28.06.2016 05:22 14,7 C 88 % 1018,5 hPa 0,0 l/m 7,8 km/h (2 Bft) W-SW 239 0 min 0,000 mm 0,0 UV-I 12 W/m 12,7 C 13,9 C 11,3 km/h (2 Bft) 100,00 %
28.06.2016 05:24 14,7 C 88 % 1018,4 hPa 0,0 l/m 8,1 km/h (2 Bft) W-SW 242 0 min 0,000 mm 0,0 UV-I 13 W/m 12,7 C 13,7 C 12,9 km/h (3 Bft) 100,00 %
28.06.2016 05:26 14,7 C 88 % 1018,4 hPa 0,0 l/m 9,4 km/h (2 Bft) S-SW 211 0 min 0,000 mm 0,0 UV-I 14 W/m 12,7 C 13,1 C 12,9 km/h (3 Bft) 100,00 %
28.06.2016 05:28 14,7 C 88 % 1018,5 hPa 0,0 l/m 10,1 km/h (2 Bft) SW 232 0 min 0,000 mm 0,0 UV-I 15 W/m 12,7 C 12,7 C 14,5 km/h (3 Bft) 100,00 %
28.06.2016 05:30 14,7 C 88 % 1018,5 hPa 0,0 l/m 10,8 km/h (2 Bft) SW 229 0 min 0,000 mm 0,0 UV-I 16 W/m 12,7 C 12,4 C 17,7 km/h (3 Bft) 100,00 %
28.06.2016 05:32 14,7 C 88 % 1018,5 hPa 0,0 l/m 8,5 km/h (2 Bft) W-SW 247 0 min 0,000 mm 0,0 UV-I 18 W/m 12,7 C 13,5 C 12,9 km/h (3 Bft) 100,00 %
28.06.2016 05:34 14,7 C 88 % 1018,4 hPa 0,0 l/m 9,3 km/h (2 Bft) SW 219 0 min 0,000 mm 0,0 UV-I 18 W/m 12,7 C 13,1 C 12,9 km/h (3 Bft) 100,00 %
28.06.2016 05:36 14,8 C 88 % 1018,5 hPa 0,0 l/m 8,5 km/h (2 Bft) W-SW 241 0 min 0,000 mm 0,0 UV-I 19 W/m 12,8 C 13,6 C 12,9 km/h (3 Bft) 97,87 %
28.06.2016 05:38 14,8 C 87 % 1018,5 hPa 0,0 l/m 8,9 km/h (2 Bft) SW 234 0 min 0,000 mm 0,0 UV-I 21 W/m 12,7 C 13,4 C 11,3 km/h (2 Bft) 97,87 %
28.06.2016 05:40 14,8 C 87 % 1018,5 hPa 0,0 l/m 8,7 km/h (2 Bft) W-SW 244 0 min 0,000 mm 0,0 UV-I 21 W/m 12,7 C 13,5 C 12,9 km/h (3 Bft) 97,87 %
28.06.2016 05:42 14,8 C 87 % 1018,5 hPa 0,0 l/m 8,6 km/h (2 Bft) SW 236 0 min 0,000 mm 0,0 UV-I 21 W/m 12,7 C 13,6 C 12,9 km/h (3 Bft) 100,00 %
28.06.2016 05:44 14,9 C 87 % 1018,5 hPa 0,0 l/m 7,8 km/h (2 Bft) W-SW 238 0 min 0,000 mm 0,0 UV-I 23 W/m 12,8 C 14,1 C 11,3 km/h (2 Bft) 95,74 %
28.06.2016 05:46 14,9 C 86 % 1018,5 hPa 0,0 l/m 9,6 km/h (2 Bft) S-SW 197 0 min 0,000 mm 0,0 UV-I 25 W/m 12,6 C 13,2 C 14,5 km/h (3 Bft) 100,00 %
28.06.2016 05:48 14,9 C 86 % 1018,5 hPa 0,0 l/m 8,3 km/h (2 Bft) SW 235 0 min 0,000 mm 0,0 UV-I 25 W/m 12,6 C 13,8 C 14,5 km/h (3 Bft) 98,00 %
28.06.2016 05:50 14,9 C 86 % 1018,5 hPa 0,0 l/m 8,6 km/h (2 Bft) SW 221 0 min 0,000 mm 0,0 UV-I 26 W/m 12,6 C 13,7 C 12,9 km/h (3 Bft) 100,00 %
28.06.2016 05:52 15,0 C 86 % 1018,5 hPa 0,0 l/m 8,4 km/h (2 Bft) S-SW 211 0 min 0,000 mm 0,0 UV-I 27 W/m 12,7 C 13,9 C 11,3 km/h (2 Bft) 100,00 %
28.06.2016 05:54 15,0 C 86 % 1018,5 hPa 0,0 l/m 7,3 km/h (2 Bft) SW 236 0 min 0,000 mm 0,0 UV-I 28 W/m 12,7 C 14,5 C 9,7 km/h (2 Bft) 97,87 %
28.06.2016 05:56 15,1 C 86 % 1018,5 hPa 0,0 l/m 7,7 km/h (2 Bft) SW 233 0 min 0,000 mm 0,0 UV-I 28 W/m 12,8 C 14,4 C 11,3 km/h (2 Bft) 100,00 %
28.06.2016 05:58 15,1 C 86 % 1018,5 hPa 0,0 l/m 9,0 km/h (2 Bft) SW 220 0 min 0,000 mm 0,0 UV-I 31 W/m 12,8 C 13,7 C 12,9 km/h (3 Bft) 100,00 %
28.06.2016 06:00 15,1 C 86 % 1018,5 hPa 0,0 l/m 10,1 km/h (2 Bft) W-SW 238 0 min 0,025 mm 0,0 UV-I 32 W/m 12,8 C 13,2 C 14,5 km/h (3 Bft) 97,87 %
28.06.2016 06:02 15,1 C 87 % 1018,5 hPa 0,0 l/m 9,9 km/h (2 Bft) SW 226 0 min 0,000 mm 0,0 UV-I 35 W/m 13,0 C 13,3 C 14,5 km/h (3 Bft) 97,87 %
28.06.2016 06:04 15,1 C 87 % 1018,5 hPa 0,0 l/m 8,1 km/h (2 Bft) SW 236 0 min 0,000 mm 0,0 UV-I 38 W/m 13,0 C 14,2 C 12,9 km/h (3 Bft) 100,00 %
28.06.2016 06:06 15,1 C 87 % 1018,5 hPa 0,0 l/m 9,8 km/h (2 Bft) SW 236 0 min 0,000 mm 0,0 UV-I 39 W/m 13,0 C 13,3 C 14,5 km/h (3 Bft) 100,00 %
28.06.2016 06:08 15,2 C 87 % 1018,5 hPa 0,0 l/m 7,5 km/h (2 Bft) S 190 0 min 0,000 mm 0,0 UV-I 38 W/m 13,0 C 14,6 C 11,3 km/h (2 Bft) 95,74 %
28.06.2016 06:10 15,2 C 87 % 1018,5 hPa 0,0 l/m 9,1 km/h (2 Bft) SW 223 0 min 0,000 mm 0,0 UV-I 39 W/m 13,0 C 13,8 C 14,5 km/h (3 Bft) 95,74 %
28.06.2016 06:12 15,2 C 87 % 1018,5 hPa 0,0 l/m 6,9 km/h (2 Bft) W-SW 251 0 min 0,000 mm 0,0 UV-I 40 W/m 13,0 C 14,9 C 11,3 km/h (2 Bft) 95,83 %
28.06.2016 06:14 15,2 C 86 % 1018,5 hPa 0,0 l/m 7,9 km/h (2 Bft) SW 214 0 min 0,000 mm 0,0 UV-I 40 W/m 12,9 C 14,4 C 12,9 km/h (3 Bft) 97,87 %
28.06.2016 06:16 15,2 C 86 % 1018,5 hPa 0,0 l/m 7,6 km/h (2 Bft) SW 229 0 min 0,000 mm 0,0 UV-I 42 W/m 12,9 C 14,5 C 11,3 km/h (2 Bft) 97,87 %
28.06.2016 06:18 15,2 C 86 % 1018,5 hPa 0,0 l/m 7,4 km/h (2 Bft) SW 224 0 min 0,000 mm 0,0 UV-I 41 W/m 12,9 C 14,6 C 11,3 km/h (2 Bft) 93,62 %
28.06.2016 06:20 15,2 C 86 % 1018,5 hPa 0,0 l/m 6,3 km/h (2 Bft) SW 234 0 min 0,000 mm 0,0 UV-I 37 W/m 12,9 C 15,2 C 9,7 km/h (2 Bft) 95,74 %
28.06.2016 06:22 15,2 C 86 % 1018,5 hPa 0,0 l/m 7,5 km/h (2 Bft) W-SW 250 0 min 0,000 mm 0,0 UV-I 33 W/m 12,9 C 14,6 C 11,3 km/h (2 Bft) 96,00 %
28.06.2016 06:24 15,2 C 87 % 1018,5 hPa 0,0 l/m 6,2 km/h (2 Bft) SW 218 0 min 0,000 mm 0,0 UV-I 34 W/m 13,0 C 15,2 C 8,0 km/h (2 Bft) 97,87 %
28.06.2016 06:26 15,2 C 86 % 1018,5 hPa 0,0 l/m 5,3 km/h (1 Bft) W-SW 238 0 min 0,000 mm 0,0 UV-I 42 W/m 12,9 C 15,2 C 8,0 km/h (2 Bft) 97,87 %
28.06.2016 06:28 15,2 C 87 % 1018,5 hPa 0,0 l/m 4,8 km/h (1 Bft) S-SW 213 0 min 0,000 mm 0,0 UV-I 53 W/m 13,0 C 15,2 C 9,7 km/h (2 Bft) 97,87 %
28.06.2016 06:30 15,3 C 87 % 1018,5 hPa 0,0 l/m 5,6 km/h (1 Bft) W-SW 239 0 min 0,000 mm 0,0 UV-I 66 W/m 13,1 C 15,3 C 8,0 km/h (2 Bft) 97,87 %
28.06.2016 06:32 15,3 C 87 % 1018,5 hPa 0,0 l/m 5,5 km/h (1 Bft) SW 227 0 min 0,000 mm 0,0 UV-I 73 W/m 13,1 C 15,3 C 8,0 km/h (2 Bft) 93,62 %
28.06.2016 06:34 15,3 C 87 % 1018,6 hPa 0,0 l/m 7,4 km/h (2 Bft) W-SW 238 0 min 0,000 mm 0,0 UV-I 78 W/m 13,1 C 14,7 C 9,7 km/h (2 Bft) 98,00 %
28.06.2016 06:36 15,3 C 87 % 1018,6 hPa 0,0 l/m 6,5 km/h (2 Bft) SW 226 0 min 0,000 mm 0,0 UV-I 82 W/m 13,1 C 15,3 C 9,7 km/h (2 Bft) 97,87 %
28.06.2016 06:38 15,4 C 87 % 1018,6 hPa 0,0 l/m 6,6 km/h (2 Bft) W-SW 251 0 min 0,000 mm 0,0 UV-I 83 W/m 13,2 C 15,3 C 9,7 km/h (2 Bft) 97,87 %
28.06.2016 06:40 15,4 C 87 % 1018,6 hPa 0,0 l/m 5,9 km/h (2 Bft) W-SW 245 0 min 0,000 mm 0,0 UV-I 82 W/m 13,2 C 15,4 C 9,7 km/h (2 Bft) 97,87 %
28.06.2016 06:42 15,4 C 87 % 1018,6 hPa 0,0 l/m 4,5 km/h (1 Bft) W-SW 257 0 min 0,000 mm 0,0 UV-I 80 W/m 13,2 C 15,4 C 6,4 km/h (2 Bft) 100,00 %
28.06.2016 06:44 15,4 C 87 % 1018,6 hPa 0,0 l/m 5,8 km/h (2 Bft) W-SW 254 0 min 0,000 mm 0,0 UV-I 77 W/m 13,2 C 15,4 C 8,0 km/h (2 Bft) 97,87 %
28.06.2016 06:46 15,5 C 87 % 1018,6 hPa 0,0 l/m 6,1 km/h (2 Bft) SW 224 0 min 0,000 mm 0,0 UV-I 81 W/m 13,3 C 15,5 C 9,7 km/h (2 Bft) 97,87 %
28.06.2016 06:48 15,6 C 86 % 1018,6 hPa 0,0 l/m 5,7 km/h (1 Bft) W-SW 248 0 min 0,000 mm 0,0 UV-I 84 W/m 13,3 C 15,6 C 8,0 km/h (2 Bft) 98,00 %
28.06.2016 06:50 15,6 C 86 % 1018,6 hPa 0,0 l/m 6,4 km/h (2 Bft) SW 234 0 min 0,000 mm 0,0 UV-I 87 W/m 13,3 C 15,6 C 12,9 km/h (3 Bft) 95,74 %
28.06.2016 06:52 15,6 C 86 % 1018,6 hPa 0,0 l/m 6,5 km/h (2 Bft) SW 227 0 min 0,000 mm 0,0 UV-I 92 W/m 13,3 C 15,6 C 12,9 km/h (3 Bft) 100,00 %
28.06.2016 06:54 15,7 C 86 % 1018,6 hPa 0,0 l/m 7,2 km/h (2 Bft) W-SW 245 0 min 0,000 mm 0,0 UV-I 98 W/m 13,4 C 15,3 C 11,3 km/h (2 Bft) 97,92 %
28.06.2016 06:56 15,7 C 86 % 1018,5 hPa 0,0 l/m 6,2 km/h (2 Bft) SW 231 0 min 0,000 mm 0,0 UV-I 106 W/m 13,4 C 15,7 C 11,3 km/h (2 Bft) 100,00 %
28.06.2016 06:58 15,7 C 86 % 1018,5 hPa 0,0 l/m 7,9 km/h (2 Bft) SW 223 0 min 0,000 mm 0,0 UV-I 119 W/m 13,4 C 14,9 C 12,9 km/h (3 Bft) 100,00 %
28.06.2016 07:00 15,8 C 86 % 1018,5 hPa 0,0 l/m 6,1 km/h (2 Bft) SW 234 0 min 0,051 mm 0,0 UV-I 125 W/m 13,5 C 15,8 C 11,3 km/h (2 Bft) 97,87 %
28.06.2016 07:02 15,8 C 85 % 1018,5 hPa 0,0 l/m 6,5 km/h (2 Bft) W 259 0 min 0,000 mm 0,0 UV-I 133 W/m 13,3 C 15,8 C 11,3 km/h (2 Bft) 100,00 %
28.06.2016 07:04 15,9 C 85 % 1018,5 hPa 0,0 l/m 5,7 km/h (1 Bft) SW 219 0 min 0,000 mm 0,0 UV-I 133 W/m 13,4 C 15,9 C 11,3 km/h (2 Bft) 100,00 %
28.06.2016 07:06 15,9 C 85 % 1018,5 hPa 0,0 l/m 6,1 km/h (2 Bft) SW 221 0 min 0,000 mm 0,0 UV-I 131 W/m 13,4 C 15,9 C 14,5 km/h (3 Bft) 100,00 %
28.06.2016 07:08 16,0 C 85 % 1018,5 hPa 0,0 l/m 8,9 km/h (2 Bft) W-SW 238 0 min 0,000 mm 0,0 UV-I 129 W/m 13,5 C 14,7 C 12,9 km/h (3 Bft) 100,00 %
28.06.2016 07:10 16,0 C 85 % 1018,5 hPa 0,0 l/m 7,7 km/h (2 Bft) W-SW 238 0 min 0,000 mm 0,0 UV-I 117 W/m 13,5 C 15,3 C 14,5 km/h (3 Bft) 100,00 %
28.06.2016 07:12 16,1 C 84 % 1018,5 hPa 0,0 l/m 8,6 km/h (2 Bft) W 281 0 min 0,000 mm 0,0 UV-I 104 W/m 13,4 C 15,0 C 14,5 km/h (3 Bft) 100,00 %
28.06.2016 07:14 16,1 C 84 % 1018,5 hPa 0,0 l/m 6,5 km/h (2 Bft) W-SW 243 0 min 0,000 mm 0,0 UV-I 95 W/m 13,4 C 16,1 C 9,7 km/h (2 Bft) 100,00 %
28.06.2016 07:16 16,1 C 84 % 1018,5 hPa 0,0 l/m 6,5 km/h (2 Bft) W-SW 246 0 min 0,000 mm 0,0 UV-I 85 W/m 13,4 C 16,1 C 11,3 km/h (2 Bft) 100,00 %
28.06.2016 07:18 16,2 C 84 % 1018,5 hPa 0,0 l/m 5,9 km/h (2 Bft) W 262 0 min 0,000 mm 0,0 UV-I 78 W/m 13,5 C 16,2 C 8,0 km/h (2 Bft) 100,00 %
28.06.2016 07:20 16,2 C 84 % 1018,5 hPa 0,0 l/m 6,9 km/h (2 Bft) W-SW 243 0 min 0,000 mm 0,5 UV-I 75 W/m 13,5 C 15,9 C 11,3 km/h (2 Bft) 97,87 %
28.06.2016 07:22 16,2 C 84 % 1018,5 hPa 0,0 l/m 4,9 km/h (1 Bft) W-SW 257 0 min 0,000 mm 0,5 UV-I 75 W/m 13,5 C 16,2 C 8,0 km/h (2 Bft) 100,00 %
28.06.2016 07:24 16,2 C 84 % 1018,5 hPa 0,0 l/m 6,0 km/h (2 Bft) W 260 0 min 0,000 mm 0,5 UV-I 89 W/m 13,5 C 16,2 C 9,7 km/h (2 Bft) 97,87 %
28.06.2016 07:26 16,2 C 84 % 1018,5 hPa 0,0 l/m 7,3 km/h (2 Bft) W-SW 245 0 min 0,000 mm 0,5 UV-I 105 W/m 13,5 C 15,7 C 12,9 km/h (3 Bft) 97,87 %
28.06.2016 07:28 16,2 C 84 % 1018,4 hPa 0,0 l/m 7,1 km/h (2 Bft) W-SW 244 0 min 0,000 mm 0,5 UV-I 114 W/m 13,5 C 15,8 C 11,3 km/h (2 Bft) 100,00 %
28.06.2016 07:30 16,2 C 83 % 1018,4 hPa 0,0 l/m 6,1 km/h (2 Bft) W-SW 246 0 min 0,000 mm 0,5 UV-I 125 W/m 13,3 C 16,2 C 11,3 km/h (2 Bft) 93,62 %
28.06.2016 07:32 16,3 C 84 % 1018,4 hPa 0,0 l/m 6,4 km/h (2 Bft) W-SW 238 0 min 0,000 mm 0,5 UV-I 146 W/m 13,6 C 16,3 C 11,3 km/h (2 Bft) 100,00 %
28.06.2016 07:34 16,3 C 84 % 1018,5 hPa 0,0 l/m 6,1 km/h (2 Bft) SW 236 0 min 0,000 mm 0,6 UV-I 176 W/m 13,6 C 16,3 C 8,0 km/h (2 Bft) 97,87 %
28.06.2016 07:36 16,3 C 84 % 1018,4 hPa 0,0 l/m 4,9 km/h (1 Bft) SW 234 2 min 0,000 mm 0,6 UV-I 211 W/m 13,6 C 16,3 C 6,4 km/h (2 Bft) 97,87 %
28.06.2016 07:38 16,4 C 85 % 1018,4 hPa 0,0 l/m 6,0 km/h (2 Bft) W-SW 244 0 min 0,000 mm 0,7 UV-I 197 W/m 13,9 C 16,4 C 8,0 km/h (2 Bft) 100,00 %
28.06.2016 07:40 16,6 C 85 % 1018,4 hPa 0,0 l/m 5,8 km/h (2 Bft) W-SW 248 2 min 0,000 mm 0,8 UV-I 414 W/m 14,1 C 16,6 C 11,3 km/h (2 Bft) 100,00 %
28.06.2016 07:42 16,7 C 85 % 1018,5 hPa 0,0 l/m 7,3 km/h (2 Bft) W-SW 246 2 min 0,000 mm 0,8 UV-I 465 W/m 14,2 C 16,2 C 12,9 km/h (3 Bft) 97,87 %
28.06.2016 07:44 16,9 C 84 % 1018,5 hPa 0,0 l/m 6,1 km/h (2 Bft) W-SW 240 2 min 0,000 mm 0,8 UV-I 433 W/m 14,2 C 16,9 C 9,7 km/h (2 Bft) 97,87 %
28.06.2016 07:46 17,2 C 82 % 1018,4 hPa 0,0 l/m 6,3 km/h (2 Bft) SW 234 2 min 0,000 mm 0,8 UV-I 453 W/m 14,1 C 17,2 C 12,9 km/h (3 Bft) 97,96 %
28.06.2016 07:48 17,3 C 81 % 1018,4 hPa 0,0 l/m 10,1 km/h (2 Bft) S-SW 206 2 min 0,000 mm 0,7 UV-I 392 W/m 14,0 C 15,6 C 14,5 km/h (3 Bft) 100,00 %
28.06.2016 07:50 17,5 C 80 % 1018,4 hPa 0,0 l/m 7,3 km/h (2 Bft) SW 231 0 min 0,000 mm 0,7 UV-I 183 W/m 14,0 C 17,1 C 12,9 km/h (3 Bft) 100,00 %
28.06.2016 07:52 17,6 C 79 % 1018,4 hPa 0,0 l/m 9,6 km/h (2 Bft) W-SW 248 0 min 0,000 mm 0,7 UV-I 172 W/m 13,9 C 16,1 C 12,9 km/h (3 Bft) 100,00 %
28.06.2016 07:54 17,6 C 79 % 1018,4 hPa 0,0 l/m 7,4 km/h (2 Bft) W 269 0 min 0,000 mm 0,8 UV-I 169 W/m 13,9 C 17,1 C 12,9 km/h (3 Bft) 100,00 %
28.06.2016 07:56 17,6 C 77 % 1018,5 hPa 0,0 l/m 8,9 km/h (2 Bft) W-SW 249 0 min 0,000 mm 0,8 UV-I 175 W/m 13,5 C 16,4 C 14,5 km/h (3 Bft) 100,00 %
28.06.2016 07:58 17,7 C 78 % 1018,5 hPa 0,0 l/m 6,6 km/h (2 Bft) W-SW 246 0 min 0,000 mm 0,9 UV-I 179 W/m 13,8 C 17,6 C 16,1 km/h (3 Bft) 100,00 %
28.06.2016 08:00 17,7 C 77 % 1018,5 hPa 0,0 l/m 8,8 km/h (2 Bft) S-SW 212 0 min 0,127 mm 0,9 UV-I 191 W/m 13,6 C 16,6 C 12,9 km/h (3 Bft) 97,87 %
28.06.2016 08:02 17,7 C 76 % 1018,5 hPa 0,0 l/m 6,6 km/h (2 Bft) W-SW 239 2 min 0,000 mm 1,1 UV-I 249 W/m 13,4 C 17,6 C 11,3 km/h (2 Bft) 97,87 %
28.06.2016 08:04 17,7 C 78 % 1018,5 hPa 0,0 l/m 5,9 km/h (2 Bft) W 271 2 min 0,000 mm 1,2 UV-I 527 W/m 13,8 C 17,7 C 11,3 km/h (2 Bft) 100,00 %
28.06.2016 08:06 17,8 C 78 % 1018,4 hPa 0,0 l/m 6,9 km/h (2 Bft) W-SW 240 2 min 0,000 mm 1,1 UV-I 473 W/m 13,9 C 17,6 C 11,3 km/h (2 Bft) 97,87 %
28.06.2016 08:08 17,9 C 77 % 1018,5 hPa 0,0 l/m 6,0 km/h (2 Bft) W-SW 250 2 min 0,000 mm 1,2 UV-I 424 W/m 13,8 C 17,9 C 8,0 km/h (2 Bft) 97,92 %
28.06.2016 08:10 18,1 C 77 % 1018,4 hPa 0,0 l/m 9,2 km/h (2 Bft) SW 219 2 min 0,000 mm 1,2 UV-I 554 W/m 14,0 C 16,9 C 16,1 km/h (3 Bft) 97,96 %
28.06.2016 08:12 18,2 C 77 % 1018,5 hPa 0,0 l/m 7,6 km/h (2 Bft) SW 232 2 min 0,000 mm 1,2 UV-I 430 W/m 14,1 C 17,6 C 12,9 km/h (3 Bft) 98,00 %
28.06.2016 08:14 18,3 C 75 % 1018,4 hPa 0,0 l/m 8,9 km/h (2 Bft) W-SW 257 2 min 0,000 mm 1,2 UV-I 315 W/m 13,8 C 17,2 C 16,1 km/h (3 Bft) 92,31 %
28.06.2016 08:16 18,4 C 76 % 1018,4 hPa 0,0 l/m 10,1 km/h (2 Bft) SW 236 2 min 0,000 mm 1,2 UV-I 295 W/m 14,1 C 16,8 C 16,1 km/h (3 Bft) 97,87 %
28.06.2016 08:18 18,4 C 75 % 1018,4 hPa 0,0 l/m 9,3 km/h (2 Bft) W-SW 240 2 min 0,000 mm 1,3 UV-I 299 W/m 13,9 C 17,1 C 16,1 km/h (3 Bft) 97,87 %
28.06.2016 08:20 18,6 C 74 % 1018,4 hPa 0,0 l/m 8,7 km/h (2 Bft) SW 228 2 min 0,000 mm 1,3 UV-I 324 W/m 13,9 C 17,6 C 16,1 km/h (3 Bft) 93,62 %
28.06.2016 08:22 18,6 C 74 % 1018,4 hPa 0,0 l/m 8,3 km/h (2 Bft) SW 215 2 min 0,000 mm 1,4 UV-I 369 W/m 13,9 C 17,8 C 12,9 km/h (3 Bft) 97,87 %
28.06.2016 08:24 18,7 C 75 % 1018,3 hPa 0,0 l/m 5,7 km/h (1 Bft) SW 222 2 min 0,000 mm 1,4 UV-I 459 W/m 14,2 C 18,7 C 9,7 km/h (2 Bft) 97,87 %
28.06.2016 08:26 18,7 C 74 % 1018,3 hPa 0,0 l/m 7,9 km/h (2 Bft) SW 231 2 min 0,000 mm 1,5 UV-I 422 W/m 14,0 C 18,0 C 12,9 km/h (3 Bft) 95,74 %
28.06.2016 08:28 18,8 C 74 % 1018,3 hPa 0,0 l/m 6,2 km/h (2 Bft) S-SW 198 2 min 0,000 mm 1,6 UV-I 510 W/m 14,1 C 18,8 C 11,3 km/h (2 Bft) 97,87 %
28.06.2016 08:30 18,8 C 73 % 1018,4 hPa 0,0 l/m 5,3 km/h (1 Bft) W-SW 242 2 min 0,000 mm 1,7 UV-I 399 W/m 13,9 C 18,8 C 8,0 km/h (2 Bft) 97,87 %
28.06.2016 08:32 18,9 C 74 % 1018,4 hPa 0,0 l/m 5,7 km/h (1 Bft) SW 233 2 min 0,000 mm 1,6 UV-I 581 W/m 14,2 C 18,9 C 11,3 km/h (2 Bft) 96,00 %
28.06.2016 08:34 19,0 C 74 % 1018,4 hPa 0,0 l/m 7,7 km/h (2 Bft) S 190 2 min 0,000 mm 1,8 UV-I 613 W/m 14,3 C 18,4 C 11,3 km/h (2 Bft) 97,87 %
28.06.2016 08:36 19,1 C 74 % 1018,4 hPa 0,0 l/m 6,3 km/h (2 Bft) W-SW 241 2 min 0,000 mm 1,8 UV-I 613 W/m 14,4 C 19,1 C 11,3 km/h (2 Bft) 93,62 %
28.06.2016 08:38 19,1 C 73 % 1018,4 hPa 0,0 l/m 6,4 km/h (2 Bft) W 266 2 min 0,000 mm 1,6 UV-I 489 W/m 14,1 C 19,1 C 9,7 km/h (2 Bft) 97,87 %
28.06.2016 08:40 19,2 C 73 % 1018,4 hPa 0,0 l/m 8,0 km/h (2 Bft) W 263 2 min 0,000 mm 1,5 UV-I 309 W/m 14,2 C 18,5 C 12,9 km/h (3 Bft) 100,00 %
28.06.2016 08:42 19,2 C 73 % 1018,4 hPa 0,0 l/m 8,3 km/h (2 Bft) W-SW 250 2 min 0,000 mm 1,6 UV-I 341 W/m 14,2 C 18,4 C 12,9 km/h (3 Bft) 95,74 %
28.06.2016 08:44 19,3 C 73 % 1018,4 hPa 0,0 l/m 4,6 km/h (1 Bft) W-SW 249 2 min 0,000 mm 1,7 UV-I 311 W/m 14,3 C 19,3 C 8,0 km/h (2 Bft) 95,74 %
28.06.2016 08:46 19,3 C 73 % 1018,4 hPa 0,0 l/m 6,9 km/h (2 Bft) W-SW 240 0 min 0,000 mm 1,7 UV-I 288 W/m 14,3 C 19,1 C 11,3 km/h (2 Bft) 100,00 %
28.06.2016 08:48 19,3 C 70 % 1018,4 hPa 0,0 l/m 4,3 km/h (1 Bft) NW 306 0 min 0,000 mm 1,5 UV-I 268 W/m 13,7 C 19,3 C 6,4 km/h (2 Bft) 100,00 %
28.06.2016 08:50 19,3 C 70 % 1018,4 hPa 0,0 l/m 8,7 km/h (2 Bft) SW 230 0 min 0,000 mm 1,8 UV-I 296 W/m 13,7 C 18,3 C 14,5 km/h (3 Bft) 100,00 %
28.06.2016 08:52 19,3 C 71 % 1018,4 hPa 0,0 l/m 7,2 km/h (2 Bft) W 263 2 min 0,000 mm 2,1 UV-I 332 W/m 13,9 C 19,0 C 11,3 km/h (2 Bft) 100,00 %
28.06.2016 08:54 19,3 C 72 % 1018,3 hPa 0,0 l/m 8,0 km/h (2 Bft) W-SW 246 0 min 0,000 mm 1,8 UV-I 292 W/m 14,1 C 18,6 C 12,9 km/h (3 Bft) 100,00 %
28.06.2016 08:56 19,3 C 71 % 1018,3 hPa 0,0 l/m 7,1 km/h (2 Bft) W 259 0 min 0,000 mm 1,7 UV-I 240 W/m 13,9 C 19,0 C 11,3 km/h (2 Bft) 100,00 %
28.06.2016 08:58 19,3 C 70 % 1018,3 hPa 0,0 l/m 7,2 km/h (2 Bft) W-SW 238 0 min 0,000 mm 1,8 UV-I 279 W/m 13,7 C 19,0 C 9,7 km/h (2 Bft) 97,87 %
28.06.2016 09:00 19,3 C 69 % 1018,2 hPa 0,0 l/m 8,0 km/h (2 Bft) W-SW 252 2 min 0,254 mm 2,1 UV-I 367 W/m 13,5 C 18,6 C 12,9 km/h (3 Bft) 100,00 %
28.06.2016 09:02 19,3 C 70 % 1018,2 hPa 0,0 l/m 5,7 km/h (1 Bft) W-SW 256 2 min 0,000 mm 2,5 UV-I 575 W/m 13,7 C 19,3 C 11,3 km/h (2 Bft) 100,00 %
28.06.2016 09:04 19,3 C 69 % 1018,2 hPa 0,0 l/m 4,5 km/h (1 Bft) W 273 2 min 0,000 mm 1,9 UV-I 670 W/m 13,5 C 19,3 C 6,4 km/h (2 Bft) 100,00 %
28.06.2016 09:06 19,3 C 70 % 1018,2 hPa 0,0 l/m 2,7 km/h (1 Bft) SW 222 0 min 0,000 mm 1,8 UV-I 279 W/m 13,7 C 19,3 C 4,8 km/h (1 Bft) 97,87 %
28.06.2016 09:08 19,3 C 69 % 1018,2 hPa 0,0 l/m 4,1 km/h (1 Bft) S-SW 200 0 min 0,000 mm 1,8 UV-I 242 W/m 13,5 C 19,3 C 6,4 km/h (2 Bft) 100,00 %
28.06.2016 09:10 19,3 C 67 % 1018,2 hPa 0,0 l/m 4,6 km/h (1 Bft) SW 220 0 min 0,000 mm 1,8 UV-I 205 W/m 13,0 C 19,3 C 8,0 km/h (2 Bft) 100,00 %
28.06.2016 09:12 19,3 C 67 % 1018,2 hPa 0,0 l/m 6,1 km/h (2 Bft) W 261 0 min 0,000 mm 1,9 UV-I 196 W/m 13,0 C 19,3 C 11,3 km/h (2 Bft) 100,00 %
28.06.2016 09:14 19,3 C 70 % 1018,3 hPa 0,0 l/m 4,3 km/h (1 Bft) W 265 0 min 0,000 mm 2,3 UV-I 277 W/m 13,7 C 19,3 C 9,7 km/h (2 Bft) 97,87 %
28.06.2016 09:16 19,4 C 69 % 1018,3 hPa 0,0 l/m 4,9 km/h (1 Bft) W 264 2 min 0,000 mm 2,8 UV-I 516 W/m 13,6 C 19,4 C 8,0 km/h (2 Bft) 95,74 %
28.06.2016 09:18 19,5 C 70 % 1018,3 hPa 0,0 l/m 3,3 km/h (1 Bft) W-SW 256 2 min 0,000 mm 2,8 UV-I 518 W/m 13,9 C 19,5 C 6,4 km/h (2 Bft) 97,87 %
28.06.2016 09:20 19,6 C 67 % 1018,3 hPa 0,0 l/m 3,0 km/h (1 Bft) W-NW 300 2 min 0,000 mm 2,9 UV-I 511 W/m 13,3 C 19,6 C 6,4 km/h (2 Bft) 100,00 %
28.06.2016 09:22 19,7 C 69 % 1018,2 hPa 0,0 l/m 3,1 km/h (1 Bft) NW 315 2 min 0,000 mm 3,0 UV-I 549 W/m 13,8 C 19,7 C 6,4 km/h (2 Bft) 97,87 %
28.06.2016 09:24 19,8 C 68 % 1018,3 hPa 0,0 l/m 3,0 km/h (1 Bft) N-NW 333 2 min 0,000 mm 3,0 UV-I 474 W/m 13,7 C 19,8 C 8,0 km/h (2 Bft) 100,00 %
28.06.2016 09:26 19,9 C 68 % 1018,2 hPa 0,0 l/m 3,0 km/h (1 Bft) W-SW 257 2 min 0,000 mm 3,1 UV-I 637 W/m 13,8 C 19,9 C 8,0 km/h (2 Bft) 100,00 %
28.06.2016 09:28 20,0 C 68 % 1018,2 hPa 0,0 l/m 7,7 km/h (2 Bft) S-SW 212 2 min 0,000 mm 3,1 UV-I 633 W/m 13,9 C 19,5 C 11,3 km/h (2 Bft) 97,92 %
28.06.2016 09:30 20,1 C 65 % 1018,2 hPa 0,0 l/m 8,8 km/h (2 Bft) W-SW 242 2 min 0,000 mm 2,5 UV-I 456 W/m 13,3 C 19,2 C 14,5 km/h (3 Bft) 97,87 %
28.06.2016 09:32 20,2 C 65 % 1018,2 hPa 0,0 l/m 6,4 km/h (2 Bft) W-SW 241 2 min 0,000 mm 2,7 UV-I 422 W/m 13,4 C 20,2 C 11,3 km/h (2 Bft) 97,87 %
28.06.2016 09:34 20,3 C 66 % 1018,3 hPa 0,0 l/m 12,0 km/h (2 Bft) W 266 2 min 0,000 mm 2,3 UV-I 454 W/m 13,7 C 18,4 C 20,9 km/h (4 Bft) 100,00 %
28.06.2016 09:36 20,2 C 64 % 1018,3 hPa 0,0 l/m 9,7 km/h (2 Bft) W-SW 258 0 min 0,000 mm 2,3 UV-I 356 W/m 13,2 C 19,0 C 14,5 km/h (3 Bft) 100,00 %
28.06.2016 09:38 20,2 C 65 % 1018,3 hPa 0,0 l/m 6,5 km/h (2 Bft) W-SW 254 0 min 0,000 mm 2,2 UV-I 285 W/m 13,4 C 20,2 C 11,3 km/h (2 Bft) 100,00 %
28.06.2016 09:40 20,2 C 65 % 1018,3 hPa 0,0 l/m 7,1 km/h (2 Bft) W 281 0 min 0,000 mm 2,9 UV-I 359 W/m 13,4 C 19,9 C 12,9 km/h (3 Bft) 100,00 %
28.06.2016 09:42 20,2 C 65 % 1018,3 hPa 0,0 l/m 8,7 km/h (2 Bft) W-SW 251 2 min 0,000 mm 3,5 UV-I 650 W/m 13,4 C 19,3 C 14,5 km/h (3 Bft) 100,00 %
28.06.2016 09:44 20,3 C 65 % 1018,3 hPa 0,0 l/m 8,5 km/h (2 Bft) W-SW 241 2 min 0,000 mm 3,5 UV-I 641 W/m 13,5 C 19,5 C 12,9 km/h (3 Bft) 97,87 %
28.06.2016 09:46 20,3 C 65 % 1018,3 hPa 0,0 l/m 7,4 km/h (2 Bft) W-SW 252 2 min 0,000 mm 3,6 UV-I 644 W/m 13,5 C 19,9 C 12,9 km/h (3 Bft) 100,00 %
28.06.2016 09:48 20,3 C 65 % 1018,3 hPa 0,0 l/m 11,0 km/h (2 Bft) W-SW 238 2 min 0,000 mm 3,6 UV-I 660 W/m 13,5 C 18,7 C 19,3 km/h (3 Bft) 100,00 %
28.06.2016 09:50 20,3 C 63 % 1018,3 hPa 0,0 l/m 10,3 km/h (2 Bft) W-NW 293 2 min 0,000 mm 3,7 UV-I 680 W/m 13,0 C 18,9 C 17,7 km/h (3 Bft) 100,00 %
28.06.2016 09:52 20,4 C 66 % 1018,3 hPa 0,0 l/m 4,6 km/h (1 Bft) W-SW 238 2 min 0,000 mm 3,8 UV-I 689 W/m 13,8 C 20,4 C 14,5 km/h (3 Bft) 100,00 %
28.06.2016 09:54 20,6 C 67 % 1018,3 hPa 0,0 l/m 4,1 km/h (1 Bft) W-NW 300 2 min 0,000 mm 3,9 UV-I 707 W/m 14,3 C 20,6 C 9,7 km/h (2 Bft) 100,00 %
28.06.2016 09:56 20,7 C 65 % 1018,3 hPa 0,0 l/m 2,8 km/h (1 Bft) W-NW 285 2 min 0,000 mm 3,9 UV-I 695 W/m 13,9 C 20,7 C 9,7 km/h (2 Bft) 100,00 %
28.06.2016 09:58 20,8 C 65 % 1018,2 hPa 0,0 l/m 10,2 km/h (2 Bft) SW 217 2 min 0,000 mm 4,0 UV-I 698 W/m 14,0 C 19,5 C 16,1 km/h (3 Bft) 100,00 %
28.06.2016 10:00 20,9 C 62 % 1018,3 hPa 0,0 l/m 11,3 km/h (2 Bft) W-NW 297 2 min 0,330 mm 4,1 UV-I 727 W/m 13,3 C 19,3 C 17,7 km/h (3 Bft) 100,00 %
28.06.2016 10:02 20,9 C 64 % 1018,3 hPa 0,0 l/m 3,9 km/h (1 Bft) W 269 2 min 0,000 mm 4,3 UV-I 747 W/m 13,8 C 20,9 C 8,0 km/h (2 Bft) 93,75 %
28.06.2016 10:04 21,0 C 65 % 1018,3 hPa 0,0 l/m 4,7 km/h (1 Bft) W 265 2 min 0,000 mm 4,3 UV-I 772 W/m 14,2 C 21,0 C 11,3 km/h (2 Bft) 97,87 %
28.06.2016 10:06 21,0 C 63 % 1018,3 hPa 0,0 l/m 6,8 km/h (2 Bft) W-SW 240 2 min 0,000 mm 4,1 UV-I 744 W/m 13,7 C 20,9 C 17,7 km/h (3 Bft) 97,87 %
28.06.2016 10:08 21,1 C 66 % 1018,3 hPa 0,0 l/m 8,3 km/h (2 Bft) S-SW 207 2 min 0,000 mm 4,3 UV-I 750 W/m 14,5 C 20,4 C 17,7 km/h (3 Bft) 97,92 %
28.06.2016 10:10 21,2 C 64 % 1018,3 hPa 0,0 l/m 9,6 km/h (2 Bft) S-SO 165 2 min 0,000 mm 4,2 UV-I 428 W/m 14,1 C 20,1 C 16,1 km/h (3 Bft) 96,00 %
28.06.2016 10:12 21,2 C 62 % 1018,2 hPa 0,0 l/m 7,1 km/h (2 Bft) W-SW 238 0 min 0,000 mm 4,2 UV-I 338 W/m 13,6 C 20,9 C 11,3 km/h (2 Bft) 91,67 %
28.06.2016 10:14 21,3 C 63 % 1018,3 hPa 0,0 l/m 8,8 km/h (2 Bft) W-SW 246 2 min 0,000 mm 4,3 UV-I 667 W/m 14,0 C 20,4 C 14,5 km/h (3 Bft) 97,87 %
28.06.2016 10:16 21,3 C 62 % 1018,3 hPa 0,0 l/m 6,5 km/h (2 Bft) W-SW 242 2 min 0,000 mm 4,9 UV-I 877 W/m 13,7 C 21,3 C 12,9 km/h (3 Bft) 97,87 %
28.06.2016 10:18 21,3 C 64 % 1018,3 hPa 0,0 l/m 5,6 km/h (1 Bft) W-SW 251 2 min 0,000 mm 4,3 UV-I 818 W/m 14,2 C 21,3 C 12,9 km/h (3 Bft) 93,62 %
28.06.2016 10:20 21,3 C 63 % 1018,3 hPa 0,0 l/m 8,2 km/h (2 Bft) W 268 2 min 0,000 mm 3,3 UV-I 743 W/m 14,0 C 20,6 C 14,5 km/h (3 Bft) 94,74 %
28.06.2016 10:22 21,3 C 63 % 1018,3 hPa 0,0 l/m 9,4 km/h (2 Bft) W-NW 291 0 min 0,000 mm 2,9 UV-I 339 W/m 14,0 C 20,3 C 14,5 km/h (3 Bft) 95,83 %
28.06.2016 10:24 21,2 C 62 % 1018,4 hPa 0,0 l/m 3,5 km/h (1 Bft) W-NW 290 0 min 0,000 mm 2,9 UV-I 381 W/m 13,6 C 21,2 C 11,3 km/h (2 Bft) 95,74 %
28.06.2016 10:26 21,2 C 63 % 1018,3 hPa 0,0 l/m 3,7 km/h (1 Bft) W 263 0 min 0,000 mm 2,9 UV-I 393 W/m 13,9 C 21,2 C 6,4 km/h (2 Bft) 93,62 %
28.06.2016 10:28 21,2 C 61 % 1018,3 hPa 0,0 l/m 4,7 km/h (1 Bft) W-SW 240 0 min 0,000 mm 2,8 UV-I 407 W/m 13,4 C 21,2 C 9,7 km/h (2 Bft) 94,00 %
28.06.2016 10:30 21,2 C 62 % 1018,3 hPa 0,0 l/m 3,8 km/h (1 Bft) W-SW 247 0 min 0,000 mm 2,8 UV-I 385 W/m 13,6 C 21,2 C 6,4 km/h (2 Bft) 98,00 %
28.06.2016 10:32 21,1 C 62 % 1018,3 hPa 0,0 l/m 4,1 km/h (1 Bft) W-SW 249 0 min 0,000 mm 2,6 UV-I 364 W/m 13,5 C 21,1 C 6,4 km/h (2 Bft) 97,87 %
28.06.2016 10:34 21,1 C 65 % 1018,2 hPa 0,0 l/m 4,4 km/h (1 Bft) S-SW 199 0 min 0,000 mm 2,2 UV-I 317 W/m 14,3 C 21,1 C 8,0 km/h (2 Bft) 97,14 %
28.06.2016 10:36 21,1 C 63 % 1018,2 hPa 0,0 l/m 10,5 km/h (2 Bft) W-SW 240 0 min 0,000 mm 2,4 UV-I 314 W/m 13,8 C 19,7 C 16,1 km/h (3 Bft) 100,00 %
28.06.2016 10:38 21,1 C 65 % 1018,2 hPa 0,0 l/m 7,1 km/h (2 Bft) SW 221 0 min 0,000 mm 2,7 UV-I 334 W/m 14,3 C 20,8 C 11,3 km/h (2 Bft) 97,87 %
28.06.2016 10:40 21,1 C 64 % 1018,2 hPa 0,0 l/m 6,5 km/h (2 Bft) SW 218 0 min 0,000 mm 2,6 UV-I 365 W/m 14,0 C 21,1 C 11,3 km/h (2 Bft) 100,00 %
28.06.2016 10:42 20,9 C 63 % 1018,3 hPa 0,0 l/m 7,6 km/h (2 Bft) SW 223 0 min 0,000 mm 2,6 UV-I 370 W/m 13,6 C 20,4 C 12,9 km/h (3 Bft) 100,00 %
28.06.2016 10:44 20,9 C 64 % 1018,2 hPa 0,0 l/m 7,0 km/h (2 Bft) W-SW 244 0 min 0,000 mm 2,3 UV-I 342 W/m 13,8 C 20,7 C 12,9 km/h (3 Bft) 95,74 %
28.06.2016 10:46 20,8 C 63 % 1018,3 hPa 0,0 l/m 8,7 km/h (2 Bft) S-SW 197 0 min 0,000 mm 2,3 UV-I 331 W/m 13,5 C 19,9 C 12,9 km/h (3 Bft) 97,87 %
28.06.2016 10:48 20,7 C 63 % 1018,2 hPa 0,0 l/m 4,5 km/h (1 Bft) W 261 0 min 0,000 mm 2,6 UV-I 330 W/m 13,4 C 20,7 C 8,0 km/h (2 Bft) 100,00 %
28.06.2016 10:50 20,7 C 65 % 1018,2 hPa 0,0 l/m 4,0 km/h (1 Bft) S-SW 204 0 min 0,000 mm 2,8 UV-I 352 W/m 13,9 C 20,7 C 8,0 km/h (2 Bft) 100,00 %
28.06.2016 10:52 20,7 C 65 % 1018,2 hPa 0,0 l/m 5,9 km/h (2 Bft) SW 234 0 min 0,000 mm 2,9 UV-I 363 W/m 13,9 C 20,7 C 8,0 km/h (2 Bft) 97,87 %
28.06.2016 10:54 20,7 C 64 % 1018,2 hPa 0,0 l/m 8,8 km/h (2 Bft) W-SW 242 0 min 0,000 mm 3,1 UV-I 362 W/m 13,6 C 19,8 C 11,3 km/h (2 Bft) 97,87 %
28.06.2016 10:56 20,7 C 63 % 1018,2 hPa 0,0 l/m 5,5 km/h (1 Bft) SW 229 0 min 0,000 mm 2,8 UV-I 338 W/m 13,4 C 20,7 C 9,7 km/h (2 Bft) 97,87 %
28.06.2016 10:58 20,7 C 65 % 1018,3 hPa 0,0 l/m 7,1 km/h (2 Bft) W 265 0 min 0,000 mm 2,7 UV-I 309 W/m 13,9 C 20,4 C 11,3 km/h (2 Bft) 95,74 %
28.06.2016 11:00 20,7 C 62 % 1018,3 hPa 0,0 l/m 5,1 km/h (1 Bft) W-SW 256 0 min 0,305 mm 2,8 UV-I 303 W/m 13,2 C 20,7 C 9,7 km/h (2 Bft) 97,87 %
28.06.2016 11:02 20,7 C 64 % 1018,3 hPa 0,0 l/m 7,2 km/h (2 Bft) W-SW 238 0 min 0,000 mm 3,1 UV-I 307 W/m 13,6 C 20,4 C 12,9 km/h (3 Bft) 97,87 %
28.06.2016 11:04 20,7 C 64 % 1018,2 hPa 0,0 l/m 6,6 km/h (2 Bft) W 271 0 min 0,000 mm 3,5 UV-I 311 W/m 13,6 C 20,6 C 11,3 km/h (2 Bft) 95,74 %
28.06.2016 11:06 20,7 C 64 % 1018,2 hPa 0,0 l/m 2,6 km/h (1 Bft) W-SW 238 0 min 0,000 mm 3,8 UV-I 308 W/m 13,6 C 20,7 C 6,4 km/h (2 Bft) 100,00 %
28.06.2016 11:08 20,8 C 65 % 1018,2 hPa 0,0 l/m 3,2 km/h (1 Bft) W-SW 258 0 min 0,000 mm 3,6 UV-I 392 W/m 14,0 C 20,8 C 4,8 km/h (1 Bft) 95,74 %
28.06.2016 11:10 20,8 C 64 % 1018,2 hPa 0,0 l/m 6,9 km/h (2 Bft) W-SW 253 2 min 0,000 mm 5,5 UV-I 722 W/m 13,7 C 20,6 C 14,5 km/h (3 Bft) 100,00 %
28.06.2016 11:12 20,9 C 63 % 1018,2 hPa 0,0 l/m 7,2 km/h (2 Bft) W-SW 258 2 min 0,000 mm 5,5 UV-I 734 W/m 13,6 C 20,6 C 12,9 km/h (3 Bft) 97,37 %
28.06.2016 11:14 20,9 C 63 % 1018,2 hPa 0,0 l/m 5,5 km/h (1 Bft) SW 227 2 min 0,000 mm 5,4 UV-I 784 W/m 13,6 C 20,9 C 11,3 km/h (2 Bft) 100,00 %
28.06.2016 11:16 21,1 C 65 % 1018,2 hPa 0,0 l/m 2,3 km/h (1 Bft) W 279 2 min 0,000 mm 3,7 UV-I 772 W/m 14,3 C 21,1 C 4,8 km/h (1 Bft) 100,00 %
28.06.2016 11:18 21,1 C 66 % 1018,1 hPa 0,0 l/m 1,8 km/h (1 Bft) O-SO 107 2 min 0,000 mm 4,0 UV-I 480 W/m 14,5 C 21,1 C 3,2 km/h (1 Bft) 97,87 %
28.06.2016 11:20 21,2 C 66 % 1018,1 hPa 0,0 l/m 1,7 km/h (1 Bft) W-SW 251 2 min 0,000 mm 6,0 UV-I 646 W/m 14,6 C 21,2 C 3,2 km/h (1 Bft) 100,00 %
28.06.2016 11:22 21,3 C 65 % 1018,1 hPa 0,0 l/m 3,4 km/h (1 Bft) S 177 2 min 0,000 mm 6,1 UV-I 806 W/m 14,4 C 21,3 C 6,4 km/h (2 Bft) 100,00 %
28.06.2016 11:24 21,4 C 62 % 1018,0 hPa 0,0 l/m 5,0 km/h (1 Bft) W-NW 288 2 min 0,000 mm 6,2 UV-I 837 W/m 13,8 C 21,4 C 12,9 km/h (3 Bft) 100,00 %
28.06.2016 11:26 21,5 C 62 % 1018,0 hPa 0,0 l/m 5,2 km/h (1 Bft) SW 221 2 min 0,000 mm 6,3 UV-I 843 W/m 13,9 C 21,5 C 11,3 km/h (2 Bft) 97,92 %
28.06.2016 11:28 21,6 C 61 % 1018,0 hPa 0,0 l/m 10,2 km/h (2 Bft) S-SW 193 2 min 0,000 mm 6,4 UV-I 839 W/m 13,7 C 20,4 C 17,7 km/h (3 Bft) 97,87 %
28.06.2016 11:30 21,7 C 63 % 1018,0 hPa 0,0 l/m 8,9 km/h (2 Bft) W 271 2 min 0,000 mm 6,3 UV-I 833 W/m 14,3 C 20,8 C 12,9 km/h (3 Bft) 100,00 %
28.06.2016 11:32 21,8 C 59 % 1018,0 hPa 0,0 l/m 6,5 km/h (2 Bft) W 278 2 min 0,000 mm 6,5 UV-I 837 W/m 13,4 C 21,8 C 12,9 km/h (3 Bft) 97,87 %
28.06.2016 11:34 21,8 C 61 % 1018,0 hPa 0,0 l/m 3,3 km/h (1 Bft) S-SW 200 2 min 0,000 mm 6,6 UV-I 858 W/m 13,9 C 21,8 C 6,4 km/h (2 Bft) 100,00 %
28.06.2016 11:36 21,9 C 59 % 1018,0 hPa 0,0 l/m 8,5 km/h (2 Bft) S 181 2 min 0,000 mm 6,6 UV-I 852 W/m 13,5 C 21,2 C 14,5 km/h (3 Bft) 98,00 %
28.06.2016 11:38 22,0 C 58 % 1018,0 hPa 0,0 l/m 9,1 km/h (2 Bft) S 169 2 min 0,000 mm 6,5 UV-I 857 W/m 13,3 C 21,1 C 16,1 km/h (3 Bft) 97,87 %
28.06.2016 11:40 22,1 C 60 % 1018,1 hPa 0,0 l/m 7,0 km/h (2 Bft) S 189 2 min 0,000 mm 6,7 UV-I 902 W/m 14,0 C 21,9 C 12,9 km/h (3 Bft) 95,74 %
28.06.2016 11:42 22,1 C 58 % 1018,0 hPa 0,0 l/m 10,1 km/h (2 Bft) S-SO 162 2 min 0,000 mm 6,8 UV-I 933 W/m 13,4 C 20,9 C 17,7 km/h (3 Bft) 100,00 %
28.06.2016 11:44 22,2 C 59 % 1018,0 hPa 0,0 l/m 9,6 km/h (2 Bft) SW 235 2 min 0,000 mm 6,6 UV-I 923 W/m 13,8 C 21,2 C 16,1 km/h (3 Bft) 100,00 %
28.06.2016 11:46 22,2 C 60 % 1018,0 hPa 0,0 l/m 5,0 km/h (1 Bft) SW 225 2 min 0,000 mm 6,6 UV-I 934 W/m 14,1 C 22,2 C 11,3 km/h (2 Bft) 100,00 %
28.06.2016 11:48 22,3 C 61 % 1018,0 hPa 0,0 l/m 4,5 km/h (1 Bft) NW 323 2 min 0,000 mm 5,3 UV-I 864 W/m 14,4 C 22,3 C 9,7 km/h (2 Bft) 100,00 %
28.06.2016 11:50 22,2 C 56 % 1017,9 hPa 0,0 l/m 5,8 km/h (2 Bft) W 267 0 min 0,000 mm 4,3 UV-I 264 W/m 13,0 C 22,2 C 14,5 km/h (3 Bft) 100,00 %
28.06.2016 11:52 22,3 C 59 % 1017,9 hPa 0,0 l/m 1,3 km/h (1 Bft) W 267 0 min 0,000 mm 6,2 UV-I 295 W/m 13,9 C 22,3 C 3,2 km/h (1 Bft) 97,87 %
28.06.2016 11:54 22,3 C 60 % 1017,9 hPa 0,0 l/m 5,1 km/h (1 Bft) W-SW 244 2 min 0,000 mm 7,0 UV-I 1016 W/m 14,2 C 22,3 C 9,7 km/h (2 Bft) 97,87 %
28.06.2016 11:56 22,4 C 58 % 1018,0 hPa 0,0 l/m 8,5 km/h (2 Bft) W-SW 246 2 min 0,000 mm 6,3 UV-I 1016 W/m 13,7 C 21,7 C 11,3 km/h (2 Bft) 95,74 %
28.06.2016 11:58 22,4 C 59 % 1018,0 hPa 0,0 l/m 5,8 km/h (2 Bft) S 186 2 min 0,000 mm 5,5 UV-I 1040 W/m 14,0 C 22,4 C 11,3 km/h (2 Bft) 95,74 %
28.06.2016 12:00 22,6 C 59 % 1017,9 hPa 0,0 l/m 7,6 km/h (2 Bft) W-SW 240 2 min 0,482 mm 7,2 UV-I 1086 W/m 14,2 C 22,2 C 11,3 km/h (2 Bft) 97,96 %
28.06.2016 12:02 22,7 C 61 % 1017,9 hPa 0,0 l/m 7,4 km/h (2 Bft) W-SW 254 2 min 0,000 mm 6,5 UV-I 1094 W/m 14,8 C 22,4 C 17,7 km/h (3 Bft) 96,00 %
28.06.2016 12:04 22,8 C 57 % 1017,8 hPa 0,0 l/m 5,6 km/h (1 Bft) S-SW 199 2 min 0,000 mm 4,3 UV-I 763 W/m 13,8 C 22,8 C 11,3 km/h (2 Bft) 98,00 %
28.06.2016 12:06 22,8 C 58 % 1017,9 hPa 0,0 l/m 5,6 km/h (1 Bft) S-SW 202 0 min 0,000 mm 5,0 UV-I 358 W/m 14,1 C 22,8 C 8,0 km/h (2 Bft) 97,37 %
28.06.2016 12:08 22,8 C 58 % 1017,9 hPa 0,0 l/m 9,5 km/h (2 Bft) W 261 2 min 0,000 mm 7,1 UV-I 607 W/m 14,1 C 21,9 C 12,9 km/h (3 Bft) 97,87 %
28.06.2016 12:10 22,8 C 58 % 1017,8 hPa 0,0 l/m 9,1 km/h (2 Bft) W 270 2 min 0,000 mm 7,0 UV-I 1021 W/m 14,1 C 22,0 C 16,1 km/h (3 Bft) 97,87 %
28.06.2016 12:12 22,9 C 58 % 1017,8 hPa 0,0 l/m 13,9 km/h (3 Bft) SW 223 2 min 0,000 mm 6,5 UV-I 926 W/m 14,2 C 21,0 C 19,3 km/h (3 Bft) 97,87 %
28.06.2016 12:14 22,8 C 56 % 1017,8 hPa 0,0 l/m 10,3 km/h (2 Bft) W-NW 287 2 min 0,000 mm 3,6 UV-I 636 W/m 13,6 C 21,7 C 17,7 km/h (3 Bft) 98,00 %
28.06.2016 12:16 22,7 C 56 % 1017,8 hPa 0,0 l/m 3,8 km/h (1 Bft) W 263 0 min 0,000 mm 3,4 UV-I 208 W/m 13,5 C 22,7 C 6,4 km/h (2 Bft) 98,08 %
28.06.2016 12:18 22,7 C 56 % 1017,8 hPa 0,0 l/m 5,8 km/h (2 Bft) SW 228 0 min 0,000 mm 6,4 UV-I 370 W/m 13,5 C 22,7 C 11,3 km/h (2 Bft) 95,74 %
28.06.2016 12:20 22,7 C 57 % 1017,8 hPa 0,0 l/m 5,1 km/h (1 Bft) W 259 2 min 0,000 mm 7,2 UV-I 955 W/m 13,7 C 22,7 C 9,7 km/h (2 Bft) 97,87 %
28.06.2016 12:22 22,7 C 60 % 1017,8 hPa 0,0 l/m 2,7 km/h (1 Bft) W-SW 246 2 min 0,000 mm 7,3 UV-I 958 W/m 14,5 C 22,7 C 4,8 km/h (1 Bft) 95,74 %
28.06.2016 12:24 22,8 C 63 % 1017,8 hPa 0,0 l/m 2,9 km/h (1 Bft) W-NW 295 2 min 0,000 mm 7,4 UV-I 957 W/m 15,4 C 22,8 C 6,4 km/h (2 Bft) 100,00 %
28.06.2016 12:26 23,0 C 63 % 1017,8 hPa 0,0 l/m 4,7 km/h (1 Bft) S 187 2 min 0,000 mm 7,6 UV-I 965 W/m 15,6 C 23,0 C 14,5 km/h (3 Bft) 97,96 %
28.06.2016 12:28 23,2 C 59 % 1017,7 hPa 0,0 l/m 10,1 km/h (2 Bft) SW 217 2 min 0,000 mm 7,5 UV-I 974 W/m 14,7 C 22,2 C 17,7 km/h (3 Bft) 97,87 %
28.06.2016 12:30 23,3 C 56 % 1017,8 hPa 0,0 l/m 7,9 km/h (2 Bft) W 281 2 min 0,000 mm 6,8 UV-I 1013 W/m 14,0 C 22,8 C 16,1 km/h (3 Bft) 100,00 %
28.06.2016 12:32 23,3 C 57 % 1017,7 hPa 0,0 l/m 4,4 km/h (1 Bft) W-NW 295 2 min 0,000 mm 6,5 UV-I 981 W/m 14,3 C 23,3 C 12,9 km/h (3 Bft) 97,87 %
28.06.2016 12:34 23,3 C 57 % 1017,7 hPa 0,0 l/m 2,7 km/h (1 Bft) W-NW 282 2 min 0,000 mm 7,1 UV-I 842 W/m 14,3 C 23,3 C 6,4 km/h (2 Bft) 100,00 %
28.06.2016 12:36 23,3 C 60 % 1017,7 hPa 0,0 l/m 5,5 km/h (1 Bft) W-SW 240 2 min 0,000 mm 7,2 UV-I 907 W/m 15,1 C 23,3 C 9,7 km/h (2 Bft) 95,74 %
28.06.2016 12:38 23,5 C 62 % 1017,7 hPa 0,0 l/m 5,0 km/h (1 Bft) NW 309 2 min 0,000 mm 7,6 UV-I 957 W/m 15,8 C 23,5 C 8,0 km/h (2 Bft) 100,00 %
28.06.2016 12:40 23,4 C 58 % 1017,7 hPa 0,0 l/m 3,5 km/h (1 Bft) NW 309 2 min 0,000 mm 7,5 UV-I 965 W/m 14,7 C 23,4 C 6,4 km/h (2 Bft) 100,00 %
28.06.2016 12:42 22,9 C 54 % 1017,7 hPa 0,0 l/m 2,4 km/h (1 Bft) NW 321 2 min 0,000 mm 6,3 UV-I 799 W/m 13,1 C 22,9 C 4,8 km/h (1 Bft) 100,00 %
28.06.2016 12:44 22,5 C 59 % 1017,7 hPa 0,0 l/m 4,0 km/h (1 Bft) W 265 0 min 0,000 mm 6,4 UV-I 274 W/m 14,1 C 22,5 C 8,0 km/h (2 Bft) 100,00 %
28.06.2016 12:46 22,2 C 55 % 1017,6 hPa 0,0 l/m 3,5 km/h (1 Bft) W 274 0 min 0,000 mm 6,0 UV-I 439 W/m 12,7 C 22,2 C 6,4 km/h (2 Bft) 100,00 %
28.06.2016 12:48 22,3 C 59 % 1017,6 hPa 0,0 l/m 2,2 km/h (1 Bft) W-SW 253 2 min 0,000 mm 7,4 UV-I 896 W/m 13,9 C 22,3 C 6,4 km/h (2 Bft) 100,00 %
28.06.2016 12:50 22,4 C 58 % 1017,5 hPa 0,0 l/m 6,9 km/h (2 Bft) S-SO 165 2 min 0,000 mm 7,5 UV-I 921 W/m 13,7 C 22,2 C 12,9 km/h (3 Bft) 100,00 %
28.06.2016 12:52 22,5 C 60 % 1017,5 hPa 0,0 l/m 7,4 km/h (2 Bft) SW 233 2 min 0,000 mm 7,5 UV-I 925 W/m 14,3 C 22,2 C 12,9 km/h (3 Bft) 100,00 %
28.06.2016 12:54 22,5 C 59 % 1017,6 hPa 0,0 l/m 8,8 km/h (2 Bft) W 266 2 min 0,000 mm 7,5 UV-I 921 W/m 14,1 C 21,7 C 14,5 km/h (3 Bft) 100,00 %
28.06.2016 12:56 22,6 C 60 % 1017,5 hPa 0,0 l/m 9,2 km/h (2 Bft) S-SW 205 2 min 0,000 mm 7,6 UV-I 936 W/m 14,4 C 21,7 C 16,1 km/h (3 Bft) 100,00 %
28.06.2016 12:58 22,3 C 57 % 1017,5 hPa 0,0 l/m 8,5 km/h (2 Bft) S 178 2 min 0,000 mm 6,4 UV-I 958 W/m 13,4 C 21,6 C 14,5 km/h (3 Bft) 100,00 %
28.06.2016 13:00 22,4 C 58 % 1017,4 hPa 0,0 l/m 10,6 km/h (2 Bft) SW 217 2 min 0,508 mm 7,5 UV-I 967 W/m 13,7 C 21,1 C 16,1 km/h (3 Bft) 100,00 %
28.06.2016 13:02 22,5 C 59 % 1017,4 hPa 0,0 l/m 9,1 km/h (2 Bft) S-SW 203 2 min 0,000 mm 7,6 UV-I 1014 W/m 14,1 C 21,6 C 16,1 km/h (3 Bft) 98,00 %
28.06.2016 13:04 22,8 C 63 % 1017,4 hPa 0,0 l/m 7,5 km/h (2 Bft) W-SW 252 2 min 0,000 mm 7,0 UV-I 1018 W/m 15,4 C 22,4 C 11,3 km/h (2 Bft) 100,00 %
28.06.2016 13:06 22,7 C 57 % 1017,4 hPa 0,0 l/m 3,9 km/h (1 Bft) S-SW 203 2 min 0,000 mm 6,0 UV-I 1069 W/m 13,7 C 22,7 C 8,0 km/h (2 Bft) 100,00 %
28.06.2016 13:08 22,4 C 58 % 1017,4 hPa 0,0 l/m 2,4 km/h (1 Bft) NW 309 0 min 0,000 mm 4,0 UV-I 346 W/m 13,7 C 22,4 C 4,8 km/h (1 Bft) 100,00 %
28.06.2016 13:10 22,4 C 63 % 1017,3 hPa 0,0 l/m 4,4 km/h (1 Bft) S 188 2 min 0,000 mm 7,3 UV-I 717 W/m 15,0 C 22,4 C 6,4 km/h (2 Bft) 100,00 %
28.06.2016 13:12 22,7 C 62 % 1017,3 hPa 0,0 l/m 3,2 km/h (1 Bft) W 264 2 min 0,000 mm 7,7 UV-I 1002 W/m 15,0 C 22,7 C 6,4 km/h (2 Bft) 95,74 %
28.06.2016 13:14 23,1 C 58 % 1017,4 hPa 0,0 l/m 13,5 km/h (3 Bft) W 264 2 min 0,000 mm 7,7 UV-I 987 W/m 14,4 C 21,3 C 19,3 km/h (3 Bft) 100,00 %
28.06.2016 13:16 23,3 C 58 % 1017,4 hPa 0,0 l/m 10,1 km/h (2 Bft) W 272 2 min 0,000 mm 7,6 UV-I 985 W/m 14,6 C 22,3 C 16,1 km/h (3 Bft) 100,00 %
28.06.2016 13:18 23,2 C 55 % 1017,3 hPa 0,0 l/m 8,4 km/h (2 Bft) W-SW 242 2 min 0,000 mm 6,5 UV-I 648 W/m 13,6 C 22,6 C 16,1 km/h (3 Bft) 100,00 %
28.06.2016 13:20 23,1 C 58 % 1017,3 hPa 0,0 l/m 4,4 km/h (1 Bft) W-NW 296 2 min 0,000 mm 7,2 UV-I 758 W/m 14,4 C 23,1 C 8,0 km/h (2 Bft) 100,00 %
28.06.2016 13:22 23,0 C 56 % 1017,4 hPa 0,0 l/m 5,8 km/h (2 Bft) W-SW 240 2 min 0,000 mm 7,6 UV-I 955 W/m 13,7 C 23,0 C 11,3 km/h (2 Bft) 100,00 %
28.06.2016 13:24 22,9 C 60 % 1017,3 hPa 0,0 l/m 4,4 km/h (1 Bft) W 279 2 min 0,000 mm 7,6 UV-I 960 W/m 14,7 C 22,9 C 6,4 km/h (2 Bft) 100,00 %
28.06.2016 13:26 23,1 C 56 % 1017,3 hPa 0,0 l/m 4,6 km/h (1 Bft) NW 306 2 min 0,000 mm 7,7 UV-I 966 W/m 13,8 C 23,1 C 9,7 km/h (2 Bft) 97,87 %
28.06.2016 13:28 23,1 C 59 % 1017,2 hPa 0,0 l/m 7,4 km/h (2 Bft) W-NW 286 2 min 0,000 mm 7,5 UV-I 955 W/m 14,6 C 22,8 C 14,5 km/h (3 Bft) 100,00 %
28.06.2016 13:30 23,0 C 60 % 1017,1 hPa 0,0 l/m 3,1 km/h (1 Bft) W-NW 302 2 min 0,000 mm 7,7 UV-I 954 W/m 14,8 C 23,0 C 6,4 km/h (2 Bft) 100,00 %
28.06.2016 13:32 23,1 C 60 % 1017,2 hPa 0,0 l/m 3,7 km/h (1 Bft) W-SW 246 2 min 0,000 mm 7,6 UV-I 945 W/m 14,9 C 23,1 C 6,4 km/h (2 Bft) 100,00 %
28.06.2016 13:34 23,1 C 52 % 1017,1 hPa 0,0 l/m 5,7 km/h (1 Bft) W 260 2 min 0,000 mm 7,6 UV-I 940 W/m 12,7 C 23,1 C 14,5 km/h (3 Bft) 100,00 %
28.06.2016 13:36 22,9 C 58 % 1017,1 hPa 0,0 l/m 1,1 km/h (1 Bft) N-NW 329 2 min 0,000 mm 7,5 UV-I 936 W/m 14,2 C 22,9 C 3,2 km/h (1 Bft) 100,00 %
28.06.2016 13:38 23,1 C 61 % 1017,0 hPa 0,0 l/m 2,5 km/h (1 Bft) W 274 2 min 0,000 mm 7,5 UV-I 934 W/m 15,2 C 23,1 C 4,8 km/h (1 Bft) 100,00 %
28.06.2016 13:40 23,2 C 54 % 1017,0 hPa 0,0 l/m 4,1 km/h (1 Bft) S 174 2 min 0,000 mm 7,6 UV-I 941 W/m 13,4 C 23,2 C 11,3 km/h (2 Bft) 100,00 %
28.06.2016 13:42 23,3 C 57 % 1017,0 hPa 0,0 l/m 2,3 km/h (1 Bft) W-SW 258 2 min 0,000 mm 7,5 UV-I 945 W/m 14,3 C 23,3 C 4,8 km/h (1 Bft) 97,87 %
28.06.2016 13:44 23,3 C 54 % 1017,0 hPa 0,0 l/m 3,5 km/h (1 Bft) N-NW 344 2 min 0,000 mm 7,5 UV-I 965 W/m 13,5 C 23,3 C 12,9 km/h (3 Bft) 100,00 %
28.06.2016 13:46 23,4 C 57 % 1016,9 hPa 0,0 l/m 2,3 km/h (1 Bft) W-NW 282 2 min 0,000 mm 7,5 UV-I 991 W/m 14,4 C 23,4 C 8,0 km/h (2 Bft) 100,00 %
28.06.2016 13:48 23,4 C 57 % 1016,9 hPa 0,0 l/m 5,6 km/h (1 Bft) W-NW 294 2 min 0,000 mm 6,0 UV-I 1018 W/m 14,4 C 23,4 C 11,3 km/h (2 Bft) 93,62 %
28.06.2016 13:50 23,3 C 54 % 1016,8 hPa 0,0 l/m 3,6 km/h (1 Bft) NW 312 2 min 0,000 mm 5,9 UV-I 1018 W/m 13,5 C 23,3 C 9,7 km/h (2 Bft) 95,74 %
28.06.2016 13:52 23,2 C 57 % 1016,9 hPa 0,0 l/m 5,0 km/h (1 Bft) N-NW 327 2 min 0,000 mm 6,7 UV-I 1023 W/m 14,2 C 23,2 C 12,9 km/h (3 Bft) 100,00 %
28.06.2016 13:54 23,2 C 56 % 1016,9 hPa 0,0 l/m 4,7 km/h (1 Bft) S 190 2 min 0,000 mm 5,4 UV-I 1025 W/m 13,9 C 23,2 C 12,9 km/h (3 Bft) 95,74 %
28.06.2016 13:56 23,1 C 59 % 1016,9 hPa 0,0 l/m 6,5 km/h (2 Bft) N-NW 335 2 min 0,000 mm 5,4 UV-I 1025 W/m 14,6 C 23,1 C 12,9 km/h (3 Bft) 97,87 %
28.06.2016 13:58 23,1 C 57 % 1016,9 hPa 0,0 l/m 6,3 km/h (2 Bft) W-NW 295 2 min 0,000 mm 4,0 UV-I 527 W/m 14,1 C 23,1 C 11,3 km/h (2 Bft) 93,62 %
28.06.2016 14:00 22,8 C 57 % 1016,9 hPa 0,0 l/m 3,7 km/h (1 Bft) NW 314 0 min 0,534 mm 3,9 UV-I 272 W/m 13,8 C 22,8 C 4,8 km/h (1 Bft) 95,24 %
28.06.2016 14:02 22,7 C 56 % 1016,8 hPa 0,0 l/m 3,4 km/h (1 Bft) W-NW 288 0 min 0,000 mm 4,1 UV-I 344 W/m 13,5 C 22,7 C 6,4 km/h (2 Bft) 97,87 %
28.06.2016 14:04 22,6 C 57 % 1016,8 hPa 0,0 l/m 5,2 km/h (1 Bft) W-NW 297 0 min 0,000 mm 5,1 UV-I 368 W/m 13,6 C 22,6 C 9,7 km/h (2 Bft) 96,00 %
28.06.2016 14:06 22,7 C 55 % 1016,8 hPa 0,0 l/m 3,9 km/h (1 Bft) W-SW 247 2 min 0,000 mm 7,4 UV-I 938 W/m 13,2 C 22,7 C 8,0 km/h (2 Bft) 93,62 %
28.06.2016 14:08 22,9 C 58 % 1016,7 hPa 0,0 l/m 1,2 km/h (1 Bft) W-NW 284 2 min 0,000 mm 7,4 UV-I 1047 W/m 14,2 C 22,9 C 3,2 km/h (1 Bft) 95,74 %
28.06.2016 14:10 23,4 C 59 % 1016,7 hPa 0,0 l/m 9,2 km/h (2 Bft) SW 224 2 min 0,000 mm 7,1 UV-I 1027 W/m 14,9 C 22,6 C 19,3 km/h (3 Bft) 97,87 %
28.06.2016 14:12 23,7 C 55 % 1016,6 hPa 0,0 l/m 11,0 km/h (2 Bft) SW 225 2 min 0,000 mm 6,6 UV-I 945 W/m 14,1 C 22,5 C 17,7 km/h (3 Bft) 97,87 %
28.06.2016 14:14 23,7 C 54 % 1016,7 hPa 0,0 l/m 13,8 km/h (3 Bft) W-SW 251 2 min 0,000 mm 6,3 UV-I 751 W/m 13,8 C 21,9 C 20,9 km/h (4 Bft) 98,00 %
28.06.2016 14:16 23,6 C 54 % 1016,6 hPa 0,0 l/m 11,3 km/h (2 Bft) W-SW 258 2 min 0,000 mm 5,6 UV-I 703 W/m 13,7 C 22,3 C 17,7 km/h (3 Bft) 97,87 %
28.06.2016 14:18 23,3 C 53 % 1016,6 hPa 0,0 l/m 10,1 km/h (2 Bft) W-SW 258 0 min 0,000 mm 5,1 UV-I 440 W/m 13,2 C 22,3 C 16,1 km/h (3 Bft) 97,87 %
28.06.2016 14:20 23,4 C 57 % 1016,6 hPa 0,0 l/m 9,1 km/h (2 Bft) SW 230 0 min 0,000 mm 6,3 UV-I 403 W/m 14,4 C 22,6 C 16,1 km/h (3 Bft) 93,62 %
28.06.2016 14:22 23,7 C 60 % 1016,6 hPa 0,0 l/m 5,9 km/h (2 Bft) W-SW 244 2 min 0,000 mm 7,1 UV-I 842 W/m 15,5 C 23,7 C 12,9 km/h (3 Bft) 95,74 %
28.06.2016 14:24 23,7 C 52 % 1016,6 hPa 0,0 l/m 1,6 km/h (1 Bft) S-SW 196 2 min 0,000 mm 7,0 UV-I 986 W/m 13,2 C 23,7 C 4,8 km/h (1 Bft) 93,62 %
28.06.2016 14:26 23,6 C 56 % 1016,5 hPa 0,0 l/m 6,1 km/h (2 Bft) S-SO 164 2 min 0,000 mm 5,3 UV-I 986 W/m 14,3 C 23,6 C 12,9 km/h (3 Bft) 97,87 %
28.06.2016 14:28 23,4 C 54 % 1016,5 hPa 0,0 l/m 13,1 km/h (3 Bft) SW 217 2 min 0,000 mm 5,5 UV-I 847 W/m 13,6 C 21,7 C 20,9 km/h (4 Bft) 97,87 %
28.06.2016 14:30 23,3 C 56 % 1016,5 hPa 0,0 l/m 13,0 km/h (3 Bft) W-SW 238 2 min 0,000 mm 4,7 UV-I 485 W/m 14,0 C 21,6 C 19,3 km/h (3 Bft) 100,00 %
28.06.2016 14:32 23,1 C 56 % 1016,5 hPa 0,0 l/m 12,5 km/h (3 Bft) W-SW 240 0 min 0,000 mm 4,6 UV-I 399 W/m 13,8 C 21,5 C 19,3 km/h (3 Bft) 98,11 %
28.06.2016 14:34 22,9 C 56 % 1016,5 hPa 0,0 l/m 9,3 km/h (2 Bft) SW 221 0 min 0,000 mm 4,3 UV-I 383 W/m 13,6 C 22,0 C 16,1 km/h (3 Bft) 95,74 %
28.06.2016 14:36 22,7 C 57 % 1016,5 hPa 0,0 l/m 12,0 km/h (2 Bft) S-SW 192 0 min 0,000 mm 4,3 UV-I 386 W/m 13,7 C 21,1 C 19,3 km/h (3 Bft) 95,74 %
28.06.2016 14:38 22,7 C 59 % 1016,5 hPa 0,0 l/m 8,6 km/h (2 Bft) S-SW 213 0 min 0,000 mm 5,4 UV-I 396 W/m 14,3 C 22,0 C 14,5 km/h (3 Bft) 100,00 %
28.06.2016 14:40 22,9 C 56 % 1016,5 hPa 0,0 l/m 8,4 km/h (2 Bft) W-SW 237 0 min 0,000 mm 5,6 UV-I 396 W/m 13,6 C 22,3 C 19,3 km/h (3 Bft) 100,00 %
28.06.2016 14:42 23,1 C 57 % 1016,5 hPa 0,0 l/m 12,3 km/h (3 Bft) W-SW 257 2 min 0,000 mm 6,5 UV-I 685 W/m 14,1 C 21,5 C 17,7 km/h (3 Bft) 100,00 %
28.06.2016 14:44 23,3 C 53 % 1016,4 hPa 0,0 l/m 9,9 km/h (2 Bft) W 261 2 min 0,000 mm 6,6 UV-I 942 W/m 13,2 C 22,3 C 19,3 km/h (3 Bft) 100,00 %
28.06.2016 14:46 23,5 C 54 % 1016,3 hPa 0,0 l/m 11,8 km/h (2 Bft) SW 224 2 min 0,000 mm 6,5 UV-I 897 W/m 13,6 C 22,1 C 16,1 km/h (3 Bft) 95,74 %
28.06.2016 14:48 23,7 C 53 % 1016,3 hPa 0,0 l/m 10,0 km/h (2 Bft) S-SW 213 2 min 0,000 mm 6,4 UV-I 893 W/m 13,5 C 22,7 C 16,1 km/h (3 Bft) 100,00 %
28.06.2016 14:50 23,6 C 53 % 1016,3 hPa 0,0 l/m 8,9 km/h (2 Bft) W-SW 252 2 min 0,000 mm 6,3 UV-I 880 W/m 13,4 C 22,9 C 12,9 km/h (3 Bft) 100,00 %
28.06.2016 14:52 23,7 C 52 % 1016,3 hPa 0,0 l/m 4,2 km/h (1 Bft) W-SW 257 2 min 0,000 mm 6,2 UV-I 869 W/m 13,2 C 23,7 C 9,7 km/h (2 Bft) 100,00 %
28.06.2016 14:54 23,8 C 54 % 1016,2 hPa 0,0 l/m 10,7 km/h (2 Bft) SW 233 2 min 0,000 mm 6,2 UV-I 871 W/m 13,9 C 22,7 C 20,9 km/h (4 Bft) 100,00 %
28.06.2016 14:56 23,8 C 52 % 1016,2 hPa 0,0 l/m 7,0 km/h (2 Bft) NW 325 2 min 0,000 mm 6,2 UV-I 870 W/m 13,3 C 23,6 C 14,5 km/h (3 Bft) 100,00 %
28.06.2016 14:58 23,7 C 54 % 1016,2 hPa 0,0 l/m 2,8 km/h (1 Bft) W-SW 238 2 min 0,000 mm 6,1 UV-I 857 W/m 13,8 C 23,7 C 6,4 km/h (2 Bft) 100,00 %
28.06.2016 15:00 23,7 C 54 % 1016,2 hPa 0,0 l/m 7,4 km/h (2 Bft) S-SW 203 2 min 0,508 mm 6,1 UV-I 854 W/m 13,8 C 23,4 C 14,5 km/h (3 Bft) 100,00 %
28.06.2016 15:02 23,8 C 53 % 1016,2 hPa 0,0 l/m 10,6 km/h (2 Bft) W-SW 237 2 min 0,000 mm 6,0 UV-I 856 W/m 13,6 C 22,7 C 16,1 km/h (3 Bft) 100,00 %
28.06.2016 15:04 23,8 C 52 % 1016,2 hPa 0,0 l/m 7,9 km/h (2 Bft) W-SW 246 2 min 0,000 mm 6,0 UV-I 851 W/m 13,3 C 23,4 C 17,7 km/h (3 Bft) 100,00 %
28.06.2016 15:06 23,8 C 51 % 1016,2 hPa 0,0 l/m 9,9 km/h (2 Bft) SW 233 2 min 0,000 mm 5,9 UV-I 844 W/m 13,0 C 22,9 C 16,1 km/h (3 Bft) 97,87 %
28.06.2016 15:08 23,8 C 54 % 1016,2 hPa 0,0 l/m 9,4 km/h (2 Bft) W-SW 241 2 min 0,000 mm 5,9 UV-I 848 W/m 13,9 C 23,0 C 17,7 km/h (3 Bft) 100,00 %
28.06.2016 15:10 24,0 C 55 % 1016,1 hPa 0,0 l/m 8,5 km/h (2 Bft) W-SW 241 2 min 0,000 mm 5,8 UV-I 807 W/m 14,4 C 23,4 C 17,7 km/h (3 Bft) 97,87 %
28.06.2016 15:12 23,9 C 52 % 1016,2 hPa 0,0 l/m 10,0 km/h (2 Bft) W-SW 248 2 min 0,000 mm 5,4 UV-I 809 W/m 13,4 C 22,9 C 19,3 km/h (3 Bft) 100,00 %
28.06.2016 15:14 23,8 C 52 % 1016,1 hPa 0,0 l/m 9,3 km/h (2 Bft) W 273 2 min 0,000 mm 4,8 UV-I 668 W/m 13,3 C 23,0 C 17,7 km/h (3 Bft) 100,00 %
28.06.2016 15:16 23,7 C 51 % 1016,1 hPa 0,0 l/m 4,9 km/h (1 Bft) W-SW 248 2 min 0,000 mm 4,6 UV-I 499 W/m 13,0 C 23,7 C 14,5 km/h (3 Bft) 97,87 %
28.06.2016 15:18 23,6 C 53 % 1016,1 hPa 0,0 l/m 10,7 km/h (2 Bft) SW 223 2 min 0,000 mm 4,6 UV-I 505 W/m 13,4 C 22,5 C 19,3 km/h (3 Bft) 100,00 %
28.06.2016 15:20 23,7 C 51 % 1016,1 hPa 0,0 l/m 11,3 km/h (2 Bft) SW 223 2 min 0,000 mm 4,3 UV-I 482 W/m 13,0 C 22,4 C 14,5 km/h (3 Bft) 100,00 %
28.06.2016 15:22 23,6 C 54 % 1016,1 hPa 0,0 l/m 7,1 km/h (2 Bft) W-SW 258 0 min 0,000 mm 3,7 UV-I 315 W/m 13,7 C 23,4 C 12,9 km/h (3 Bft) 100,00 %
28.06.2016 15:24 23,6 C 53 % 1016,1 hPa 0,0 l/m 8,9 km/h (2 Bft) W-NW 288 0 min 0,000 mm 3,5 UV-I 327 W/m 13,4 C 22,9 C 19,3 km/h (3 Bft) 100,00 %
28.06.2016 15:26 23,5 C 51 % 1016,1 hPa 0,0 l/m 12,3 km/h (3 Bft) SW 227 2 min 0,000 mm 3,9 UV-I 433 W/m 12,8 C 22,0 C 19,3 km/h (3 Bft) 100,00 %
28.06.2016 15:28 23,3 C 51 % 1016,1 hPa 0,0 l/m 13,6 km/h (3 Bft) SW 221 2 min 0,000 mm 4,1 UV-I 513 W/m 12,6 C 21,5 C 22,5 km/h (4 Bft) 100,00 %
28.06.2016 15:30 23,3 C 53 % 1016,0 hPa 0,0 l/m 15,4 km/h (3 Bft) SW 234 0 min 0,000 mm 3,9 UV-I 409 W/m 13,2 C 21,2 C 25,7 km/h (4 Bft) 100,00 %
28.06.2016 15:32 23,3 C 56 % 1015,9 hPa 0,0 l/m 8,8 km/h (2 Bft) W 274 0 min 0,000 mm 3,0 UV-I 375 W/m 14,0 C 22,6 C 14,5 km/h (3 Bft) 100,00 %
28.06.2016 15:34 23,7 C 54 % 1015,9 hPa 0,0 l/m 9,4 km/h (2 Bft) SW 219 0 min 0,000 mm 5,1 UV-I 376 W/m 13,8 C 22,9 C 17,7 km/h (3 Bft) 100,00 %
28.06.2016 15:36 24,0 C 55 % 1015,8 hPa 0,0 l/m 7,4 km/h (2 Bft) W-SW 248 2 min 0,000 mm 5,3 UV-I 756 W/m 14,4 C 23,7 C 14,5 km/h (3 Bft) 100,00 %
28.06.2016 15:38 24,2 C 51 % 1015,8 hPa 0,0 l/m 8,7 km/h (2 Bft) S 173 2 min 0,000 mm 4,7 UV-I 1009 W/m 13,4 C 23,6 C 17,7 km/h (3 Bft) 97,87 %
28.06.2016 15:40 24,2 C 53 % 1015,7 hPa 0,0 l/m 10,0 km/h (2 Bft) SW 221 2 min 0,000 mm 4,9 UV-I 970 W/m 14,0 C 23,3 C 17,7 km/h (3 Bft) 100,00 %
28.06.2016 15:42 24,1 C 49 % 1015,8 hPa 0,0 l/m 9,1 km/h (2 Bft) SW 233 2 min 0,000 mm 5,0 UV-I 907 W/m 12,7 C 23,4 C 17,7 km/h (3 Bft) 98,04 %
28.06.2016 15:44 24,0 C 50 % 1015,7 hPa 0,0 l/m 10,5 km/h (2 Bft) W-SW 243 2 min 0,000 mm 4,4 UV-I 806 W/m 12,9 C 22,9 C 14,5 km/h (3 Bft) 95,74 %
28.06.2016 15:46 24,1 C 54 % 1015,7 hPa 0,0 l/m 10,3 km/h (2 Bft) S 189 2 min 0,000 mm 4,9 UV-I 723 W/m 14,2 C 23,1 C 19,3 km/h (3 Bft) 97,87 %
28.06.2016 15:48 24,1 C 52 % 1015,7 hPa 0,0 l/m 9,1 km/h (2 Bft) S-SW 200 2 min 0,000 mm 4,8 UV-I 806 W/m 13,6 C 23,4 C 16,1 km/h (3 Bft) 97,87 %
28.06.2016 15:50 24,0 C 51 % 1015,7 hPa 0,0 l/m 11,0 km/h (2 Bft) SW 217 2 min 0,000 mm 4,7 UV-I 789 W/m 13,2 C 22,8 C 16,1 km/h (3 Bft) 100,00 %
28.06.2016 15:52 24,1 C 50 % 1015,6 hPa 0,0 l/m 14,5 km/h (3 Bft) SW 221 2 min 0,000 mm 4,6 UV-I 767 W/m 13,0 C 22,3 C 24,1 km/h (4 Bft) 96,23 %
28.06.2016 15:54 24,0 C 50 % 1015,6 hPa 0,0 l/m 14,0 km/h (3 Bft) S-SW 205 2 min 0,000 mm 4,6 UV-I 759 W/m 12,9 C 22,3 C 20,9 km/h (4 Bft) 95,83 %
28.06.2016 15:56 23,8 C 53 % 1015,6 hPa 0,0 l/m 8,8 km/h (2 Bft) SW 221 2 min 0,000 mm 4,5 UV-I 742 W/m 13,6 C 23,1 C 14,5 km/h (3 Bft) 97,87 %
28.06.2016 15:58 24,1 C 53 % 1015,6 hPa 0,0 l/m 9,3 km/h (2 Bft) SW 234 2 min 0,000 mm 4,4 UV-I 731 W/m 13,9 C 23,3 C 14,5 km/h (3 Bft) 96,15 %
28.06.2016 16:00 24,1 C 54 % 1015,6 hPa 0,0 l/m 11,0 km/h (2 Bft) SW 217 2 min 0,000 mm 4,4 UV-I 719 W/m 14,2 C 23,0 C 16,1 km/h (3 Bft) 97,92 %
28.06.2016 16:02 24,2 C 51 % 1015,6 hPa 0,0 l/m 11,3 km/h (2 Bft) S-SW 205 2 min 0,482 mm 4,3 UV-I 711 W/m 13,4 C 23,0 C 19,3 km/h (3 Bft) 97,37 %
28.06.2016 16:04 24,2 C 52 % 1015,5 hPa 0,0 l/m 9,0 km/h (2 Bft) W-SW 246 2 min 0,000 mm 4,2 UV-I 707 W/m 13,7 C 23,5 C 14,5 km/h (3 Bft) 96,00 %
28.06.2016 16:06 24,2 C 52 % 1015,5 hPa 0,0 l/m 10,2 km/h (2 Bft) S-SW 207 2 min 0,000 mm 4,2 UV-I 700 W/m 13,7 C 23,2 C 14,5 km/h (3 Bft) 93,62 %
28.06.2016 16:08 24,1 C 49 % 1015,4 hPa 0,0 l/m 9,8 km/h (2 Bft) S 180 2 min 0,000 mm 4,1 UV-I 695 W/m 12,7 C 23,2 C 14,5 km/h (3 Bft) 97,87 %
28.06.2016 16:10 24,0 C 51 % 1015,4 hPa 0,0 l/m 7,2 km/h (2 Bft) S-SW 199 2 min 0,000 mm 4,1 UV-I 692 W/m 13,2 C 23,8 C 19,3 km/h (3 Bft) 98,08 %
28.06.2016 16:12 24,1 C 50 % 1015,4 hPa 0,0 l/m 14,1 km/h (3 Bft) W 264 2 min 0,000 mm 4,0 UV-I 686 W/m 13,0 C 22,4 C 24,1 km/h (4 Bft) 94,44 %
28.06.2016 16:14 24,2 C 51 % 1015,4 hPa 0,0 l/m 9,1 km/h (2 Bft) SW 217 2 min 0,000 mm 4,0 UV-I 681 W/m 13,4 C 23,5 C 17,7 km/h (3 Bft) 97,87 %
28.06.2016 16:16 24,3 C 48 % 1015,3 hPa 0,0 l/m 7,1 km/h (2 Bft) N-NW 336 2 min 0,000 mm 3,9 UV-I 672 W/m 12,6 C 24,1 C 12,9 km/h (3 Bft) 91,49 %
28.06.2016 16:18 24,2 C 50 % 1015,3 hPa 0,0 l/m 1,5 km/h (1 Bft) NO 44 2 min 0,000 mm 3,8 UV-I 670 W/m 13,1 C 24,2 C 4,8 km/h (1 Bft) 97,87 %
28.06.2016 16:20 24,2 C 52 % 1015,2 hPa 0,0 l/m 7,1 km/h (2 Bft) SW 221 2 min 0,000 mm 3,8 UV-I 668 W/m 13,7 C 24,0 C 12,9 km/h (3 Bft) 95,92 %
28.06.2016 16:22 24,2 C 53 % 1015,2 hPa 0,0 l/m 8,3 km/h (2 Bft) W 259 2 min 0,000 mm 3,8 UV-I 666 W/m 14,0 C 23,7 C 16,1 km/h (3 Bft) 97,87 %
28.06.2016 16:24 24,3 C 51 % 1015,2 hPa 0,0 l/m 11,8 km/h (2 Bft) S 175 2 min 0,000 mm 3,7 UV-I 664 W/m 13,5 C 23,0 C 17,7 km/h (3 Bft) 93,62 %
28.06.2016 16:26 24,2 C 51 % 1015,3 hPa 0,0 l/m 8,7 km/h (2 Bft) S 185 2 min 0,000 mm 3,2 UV-I 655 W/m 13,4 C 23,6 C 16,1 km/h (3 Bft) 98,00 %
28.06.2016 16:28 24,1 C 51 % 1015,2 hPa 0,0 l/m 5,3 km/h (1 Bft) W 263 0 min 0,000 mm 2,4 UV-I 114 W/m 13,3 C 24,1 C 9,7 km/h (2 Bft) 97,87 %
28.06.2016 16:30 24,0 C 50 % 1015,3 hPa 0,0 l/m 6,3 km/h (2 Bft) SW 236 0 min 0,000 mm 2,8 UV-I 168 W/m 12,9 C 24,0 C 11,3 km/h (2 Bft) 97,96 %
28.06.2016 16:32 24,1 C 51 % 1015,3 hPa 0,0 l/m 6,3 km/h (2 Bft) W 272 2 min 0,000 mm 3,5 UV-I 378 W/m 13,3 C 24,1 C 12,9 km/h (3 Bft) 100,00 %
28.06.2016 16:34 24,3 C 50 % 1015,2 hPa 0,0 l/m 4,9 km/h (1 Bft) W 279 2 min 0,000 mm 3,5 UV-I 641 W/m 13,2 C 24,3 C 11,3 km/h (2 Bft) 97,87 %
28.06.2016 16:36 24,4 C 51 % 1015,2 hPa 0,0 l/m 8,1 km/h (2 Bft) W-SW 246 2 min 0,000 mm 3,4 UV-I 633 W/m 13,6 C 23,9 C 17,7 km/h (3 Bft) 97,87 %
28.06.2016 16:38 24,4 C 47 % 1015,2 hPa 0,0 l/m 7,9 km/h (2 Bft) SW 221 2 min 0,000 mm 3,3 UV-I 631 W/m 12,3 C 24,0 C 12,9 km/h (3 Bft) 100,00 %
28.06.2016 16:40 24,3 C 48 % 1015,2 hPa 0,0 l/m 8,7 km/h (2 Bft) W-SW 253 2 min 0,000 mm 3,3 UV-I 624 W/m 12,6 C 23,7 C 14,5 km/h (3 Bft) 100,00 %
28.06.2016 16:42 24,2 C 50 % 1015,2 hPa 0,0 l/m 2,6 km/h (1 Bft) W-SW 243 2 min 0,000 mm 3,2 UV-I 618 W/m 13,1 C 24,2 C 9,7 km/h (2 Bft) 97,87 %
28.06.2016 16:44 24,2 C 48 % 1015,2 hPa 0,0 l/m 7,1 km/h (2 Bft) S-SW 194 2 min 0,000 mm 3,1 UV-I 610 W/m 12,5 C 24,0 C 12,9 km/h (3 Bft) 100,00 %
28.06.2016 16:46 24,2 C 50 % 1015,1 hPa 0,0 l/m 7,8 km/h (2 Bft) W-SW 254 2 min 0,000 mm 3,1 UV-I 602 W/m 13,1 C 23,8 C 14,5 km/h (3 Bft) 100,00 %
28.06.2016 16:48 24,3 C 48 % 1015,1 hPa 0,0 l/m 9,3 km/h (2 Bft) W 259 2 min 0,000 mm 3,1 UV-I 602 W/m 12,6 C 23,5 C 14,5 km/h (3 Bft) 100,00 %
28.06.2016 16:50 24,4 C 49 % 1015,1 hPa 0,0 l/m 5,8 km/h (2 Bft) SW 223 2 min 0,000 mm 3,1 UV-I 604 W/m 13,0 C 24,4 C 11,3 km/h (2 Bft) 100,00 %
28.06.2016 16:52 24,4 C 49 % 1015,2 hPa 0,0 l/m 10,4 km/h (2 Bft) W 270 2 min 0,000 mm 3,0 UV-I 593 W/m 13,0 C 23,4 C 19,3 km/h (3 Bft) 97,87 %
28.06.2016 16:54 24,4 C 46 % 1015,2 hPa 0,0 l/m 8,9 km/h (2 Bft) W 261 2 min 0,000 mm 2,9 UV-I 595 W/m 12,0 C 23,7 C 16,1 km/h (3 Bft) 100,00 %
28.06.2016 16:56 24,4 C 50 % 1015,2 hPa 0,0 l/m 4,1 km/h (1 Bft) W-SW 238 2 min 0,000 mm 2,9 UV-I 595 W/m 13,3 C 24,4 C 9,7 km/h (2 Bft) 100,00 %
28.06.2016 16:58 24,7 C 47 % 1015,3 hPa 0,0 l/m 9,6 km/h (2 Bft) S 191 2 min 0,000 mm 2,8 UV-I 595 W/m 12,6 C 23,9 C 16,1 km/h (3 Bft) 100,00 %
28.06.2016 17:00 24,5 C 47 % 1015,2 hPa 0,0 l/m 12,1 km/h (2 Bft) S-SW 213 2 min 0,432 mm 2,7 UV-I 586 W/m 12,4 C 23,2 C 17,7 km/h (3 Bft) 100,00 %
28.06.2016 17:02 24,4 C 48 % 1015,2 hPa 0,0 l/m 5,8 km/h (2 Bft) SW 227 2 min 0,000 mm 2,7 UV-I 576 W/m 12,7 C 24,4 C 9,7 km/h (2 Bft) 100,00 %
28.06.2016 17:04 24,5 C 49 % 1015,2 hPa 0,0 l/m 5,4 km/h (1 Bft) W-SW 257 2 min 0,000 mm 2,6 UV-I 549 W/m 13,1 C 24,5 C 11,3 km/h (2 Bft) 97,87 %
28.06.2016 17:06 24,5 C 47 % 1015,2 hPa 0,0 l/m 6,3 km/h (2 Bft) W-SW 254 2 min 0,000 mm 2,5 UV-I 557 W/m 12,4 C 24,5 C 16,1 km/h (3 Bft) 100,00 %
28.06.2016 17:08 24,6 C 49 % 1015,2 hPa 0,0 l/m 7,4 km/h (2 Bft) W 259 2 min 0,000 mm 2,5 UV-I 544 W/m 13,2 C 24,3 C 14,5 km/h (3 Bft) 97,87 %
28.06.2016 17:10 24,6 C 47 % 1015,2 hPa 0,0 l/m 7,5 km/h (2 Bft) W-NW 297 2 min 0,000 mm 2,4 UV-I 527 W/m 12,5 C 24,3 C 12,9 km/h (3 Bft) 95,74 %
28.06.2016 17:12 24,4 C 46 % 1015,2 hPa 0,0 l/m 5,2 km/h (1 Bft) W-NW 298 2 min 0,000 mm 2,4 UV-I 531 W/m 12,0 C 24,4 C 9,7 km/h (2 Bft) 98,00 %
28.06.2016 17:14 24,4 C 45 % 1015,3 hPa 0,0 l/m 5,6 km/h (1 Bft) W 269 2 min 0,000 mm 2,4 UV-I 546 W/m 11,7 C 24,4 C 14,5 km/h (3 Bft) 97,87 %
28.06.2016 17:16 24,5 C 49 % 1015,2 hPa 0,0 l/m 7,8 km/h (2 Bft) W-SW 240 2 min 0,000 mm 2,3 UV-I 567 W/m 13,1 C 24,1 C 12,9 km/h (3 Bft) 97,92 %
28.06.2016 17:18 24,6 C 48 % 1015,2 hPa 0,0 l/m 5,4 km/h (1 Bft) S-SW 207 2 min 0,000 mm 2,3 UV-I 568 W/m 12,8 C 24,6 C 9,7 km/h (2 Bft) 97,87 %
28.06.2016 17:20 24,6 C 49 % 1015,2 hPa 0,0 l/m 9,1 km/h (2 Bft) S-SW 203 2 min 0,000 mm 2,2 UV-I 439 W/m 13,2 C 23,9 C 14,5 km/h (3 Bft) 95,74 %
28.06.2016 17:22 24,6 C 48 % 1015,3 hPa 0,0 l/m 7,2 km/h (2 Bft) W-SW 252 2 min 0,000 mm 2,1 UV-I 476 W/m 12,8 C 24,4 C 11,3 km/h (2 Bft) 100,00 %
28.06.2016 17:24 24,4 C 51 % 1015,3 hPa 0,0 l/m 5,5 km/h (1 Bft) W 260 2 min 0,000 mm 2,0 UV-I 501 W/m 13,6 C 24,4 C 12,9 km/h (3 Bft) 95,74 %
28.06.2016 17:26 24,6 C 49 % 1015,3 hPa 0,0 l/m 7,0 km/h (2 Bft) W 267 2 min 0,000 mm 2,2 UV-I 590 W/m 13,2 C 24,4 C 12,9 km/h (3 Bft) 100,00 %
28.06.2016 17:28 24,7 C 45 % 1015,3 hPa 0,0 l/m 9,0 km/h (2 Bft) W 262 2 min 0,000 mm 2,2 UV-I 580 W/m 12,0 C 24,0 C 14,5 km/h (3 Bft) 100,00 %
28.06.2016 17:30 24,6 C 43 % 1015,3 hPa 0,0 l/m 10,4 km/h (2 Bft) W 269 2 min 0,000 mm 2,1 UV-I 553 W/m 11,2 C 23,6 C 14,5 km/h (3 Bft) 100,00 %
28.06.2016 17:32 24,6 C 46 % 1015,3 hPa 0,0 l/m 6,4 km/h (2 Bft) S-SW 213 2 min 0,000 mm 2,0 UV-I 492 W/m 12,2 C 24,6 C 12,9 km/h (3 Bft) 100,00 %
28.06.2016 17:34 24,6 C 46 % 1015,3 hPa 0,0 l/m 2,0 km/h (1 Bft) W-SW 241 2 min 0,000 mm 2,0 UV-I 495 W/m 12,2 C 24,6 C 4,8 km/h (1 Bft) 95,74 %
28.06.2016 17:36 24,7 C 47 % 1015,2 hPa 0,0 l/m 4,9 km/h (1 Bft) W-SW 246 2 min 0,000 mm 1,9 UV-I 488 W/m 12,6 C 24,7 C 11,3 km/h (2 Bft) 95,74 %
28.06.2016 17:38 24,7 C 47 % 1015,2 hPa 0,0 l/m 5,1 km/h (1 Bft) S-SW 211 2 min 0,000 mm 1,9 UV-I 483 W/m 12,6 C 24,7 C 8,0 km/h (2 Bft) 100,00 %
28.06.2016 17:40 24,5 C 44 % 1015,2 hPa 0,0 l/m 4,9 km/h (1 Bft) SW 225 2 min 0,000 mm 1,9 UV-I 480 W/m 11,4 C 24,5 C 9,7 km/h (2 Bft) 100,00 %
28.06.2016 17:42 24,4 C 48 % 1015,1 hPa 0,0 l/m 4,2 km/h (1 Bft) S-SW 212 2 min 0,000 mm 1,8 UV-I 475 W/m 12,7 C 24,4 C 8,0 km/h (2 Bft) 100,00 %
28.06.2016 17:44 24,4 C 47 % 1015,1 hPa 0,0 l/m 7,2 km/h (2 Bft) SW 236 2 min 0,000 mm 1,8 UV-I 468 W/m 12,3 C 24,2 C 11,3 km/h (2 Bft) 100,00 %
28.06.2016 17:46 24,4 C 46 % 1015,1 hPa 0,0 l/m 7,0 km/h (2 Bft) S-SO 165 2 min 0,000 mm 1,7 UV-I 461 W/m 12,0 C 24,2 C 12,9 km/h (3 Bft) 100,00 %
28.06.2016 17:48 24,3 C 46 % 1015,1 hPa 0,0 l/m 2,6 km/h (1 Bft) S-SW 205 2 min 0,000 mm 1,6 UV-I 451 W/m 11,9 C 24,3 C 4,8 km/h (1 Bft) 97,87 %
28.06.2016 17:50 24,3 C 46 % 1015,0 hPa 0,0 l/m 5,4 km/h (1 Bft) W-SW 257 2 min 0,000 mm 1,6 UV-I 439 W/m 11,9 C 24,3 C 6,4 km/h (2 Bft) 95,74 %
28.06.2016 17:52 24,3 C 45 % 1015,0 hPa 0,0 l/m 3,1 km/h (1 Bft) W-SW 257 2 min 0,000 mm 1,5 UV-I 434 W/m 11,6 C 24,3 C 6,4 km/h (2 Bft) 95,83 %
28.06.2016 17:54 24,4 C 48 % 1015,0 hPa 0,0 l/m 3,4 km/h (1 Bft) S-SW 211 2 min 0,000 mm 1,5 UV-I 427 W/m 12,7 C 24,4 C 6,4 km/h (2 Bft) 97,87 %
28.06.2016 17:56 24,6 C 44 % 1015,0 hPa 0,0 l/m 4,3 km/h (1 Bft) W-NW 292 2 min 0,000 mm 1,4 UV-I 422 W/m 11,5 C 24,6 C 8,0 km/h (2 Bft) 97,87 %
28.06.2016 17:58 24,5 C 44 % 1015,0 hPa 0,0 l/m 2,6 km/h (1 Bft) NW 313 2 min 0,000 mm 1,4 UV-I 416 W/m 11,4 C 24,5 C 6,4 km/h (2 Bft) 97,87 %
28.06.2016 18:00 24,4 C 51 % 1015,0 hPa 0,0 l/m 3,8 km/h (1 Bft) W-NW 289 2 min 0,000 mm 1,3 UV-I 408 W/m 13,6 C 24,4 C 6,4 km/h (2 Bft) 97,92 %
28.06.2016 18:02 24,4 C 48 % 1015,0 hPa 0,0 l/m 1,8 km/h (1 Bft) W-NW 290 2 min 0,356 mm 1,3 UV-I 402 W/m 12,7 C 24,4 C 4,8 km/h (1 Bft) 96,00 %
28.06.2016 18:04 24,4 C 46 % 1014,9 hPa 0,0 l/m 4,1 km/h (1 Bft) SW 225 2 min 0,000 mm 1,3 UV-I 400 W/m 12,0 C 24,4 C 11,3 km/h (2 Bft) 93,62 %
28.06.2016 18:06 24,4 C 49 % 1014,9 hPa 0,0 l/m 4,6 km/h (1 Bft) W-SW 250 2 min 0,000 mm 1,3 UV-I 396 W/m 13,0 C 24,4 C 9,7 km/h (2 Bft) 100,00 %
28.06.2016 18:08 24,4 C 47 % 1014,9 hPa 0,0 l/m 5,7 km/h (1 Bft) W 276 2 min 0,000 mm 1,2 UV-I 390 W/m 12,3 C 24,4 C 8,0 km/h (2 Bft) 94,00 %
28.06.2016 18:10 24,4 C 46 % 1014,8 hPa 0,0 l/m 3,7 km/h (1 Bft) W 271 2 min 0,000 mm 1,2 UV-I 386 W/m 12,0 C 24,4 C 6,4 km/h (2 Bft) 92,00 %
28.06.2016 18:12 24,3 C 46 % 1014,8 hPa 0,0 l/m 1,1 km/h (1 Bft) W 271 2 min 0,000 mm 1,1 UV-I 380 W/m 11,9 C 24,3 C 3,2 km/h (1 Bft) 97,37 %
28.06.2016 18:14 24,4 C 47 % 1014,7 hPa 0,0 l/m 2,1 km/h (1 Bft) W-SW 250 2 min 0,000 mm 1,1 UV-I 375 W/m 12,3 C 24,4 C 6,4 km/h (2 Bft) 97,87 %
28.06.2016 18:16 24,3 C 48 % 1014,7 hPa 0,0 l/m 0,9 km/h (0 Bft) W 274 2 min 0,000 mm 1,1 UV-I 370 W/m 12,6 C 24,3 C 4,8 km/h (1 Bft) 95,74 %
28.06.2016 18:18 24,3 C 46 % 1014,8 hPa 0,0 l/m 3,1 km/h (1 Bft) NW 315 2 min 0,000 mm 1,0 UV-I 362 W/m 11,9 C 24,3 C 4,8 km/h (1 Bft) 95,74 %
28.06.2016 18:20 24,3 C 47 % 1014,7 hPa 0,0 l/m 2,2 km/h (1 Bft) N 10 2 min 0,000 mm 1,0 UV-I 356 W/m 12,3 C 24,3 C 6,4 km/h (2 Bft) 100,00 %
28.06.2016 18:22 24,3 C 46 % 1014,7 hPa 0,0 l/m 1,0 km/h (0 Bft) S-SO 163 2 min 0,000 mm 1,0 UV-I 350 W/m 11,9 C 24,3 C 6,4 km/h (2 Bft) 97,87 %
28.06.2016 18:24 24,3 C 49 % 1014,7 hPa 0,0 l/m 1,2 km/h (1 Bft) S-SW 207 2 min 0,000 mm 1,0 UV-I 346 W/m 12,9 C 24,3 C 6,4 km/h (2 Bft) 97,87 %
28.06.2016 18:26 24,3 C 48 % 1014,6 hPa 0,0 l/m 5,0 km/h (1 Bft) S 183 2 min 0,000 mm 1,0 UV-I 342 W/m 12,6 C 24,3 C 6,4 km/h (2 Bft) 97,87 %
28.06.2016 18:28 24,2 C 48 % 1014,6 hPa 0,0 l/m 3,3 km/h (1 Bft) S 174 2 min 0,000 mm 0,9 UV-I 337 W/m 12,5 C 24,2 C 8,0 km/h (2 Bft) 100,00 %
28.06.2016 18:30 24,2 C 47 % 1014,6 hPa 0,0 l/m 1,2 km/h (1 Bft) S 174 2 min 0,000 mm 0,9 UV-I 331 W/m 12,2 C 24,2 C 3,2 km/h (1 Bft) 100,00 %
28.06.2016 18:32 24,3 C 48 % 1014,6 hPa 0,0 l/m 0,5 km/h (0 Bft) S 174 2 min 0,000 mm 0,9 UV-I 325 W/m 12,6 C 24,3 C 1,6 km/h (1 Bft) 100,00 %
28.06.2016 18:34 24,3 C 51 % 1014,6 hPa 0,0 l/m 0,6 km/h (0 Bft) S-SW 211 2 min 0,000 mm 0,9 UV-I 321 W/m 13,5 C 24,3 C 1,6 km/h (1 Bft) 100,00 %
28.06.2016 18:36 24,4 C 49 % 1014,6 hPa 0,0 l/m 3,5 km/h (1 Bft) W 274 2 min 0,000 mm 0,8 UV-I 315 W/m 13,0 C 24,4 C 4,8 km/h (1 Bft) 100,00 %
28.06.2016 18:38 24,4 C 48 % 1014,6 hPa 0,0 l/m 3,1 km/h (1 Bft) W-SW 248 2 min 0,000 mm 0,8 UV-I 308 W/m 12,7 C 24,4 C 4,8 km/h (1 Bft) 100,00 %
28.06.2016 18:40 24,4 C 48 % 1014,6 hPa 0,0 l/m 1,9 km/h (1 Bft) W-SW 255 2 min 0,000 mm 0,8 UV-I 301 W/m 12,7 C 24,4 C 3,2 km/h (1 Bft) 100,00 %
28.06.2016 18:42 24,4 C 46 % 1014,6 hPa 0,0 l/m 1,7 km/h (1 Bft) W-SW 255 2 min 0,000 mm 0,8 UV-I 296 W/m 12,0 C 24,4 C 3,2 km/h (1 Bft) 100,00 %
28.06.2016 18:44 24,4 C 48 % 1014,5 hPa 0,0 l/m 2,6 km/h (1 Bft) W-SW 241 2 min 0,000 mm 0,7 UV-I 290 W/m 12,7 C 24,4 C 4,8 km/h (1 Bft) 100,00 %
28.06.2016 18:46 24,3 C 48 % 1014,6 hPa 0,0 l/m 2,0 km/h (1 Bft) SW 223 2 min 0,000 mm 0,7 UV-I 286 W/m 12,6 C 24,3 C 3,2 km/h (1 Bft) 93,62 %
28.06.2016 18:48 24,3 C 48 % 1014,6 hPa 0,0 l/m 2,0 km/h (1 Bft) S-SO 166 2 min 0,000 mm 0,7 UV-I 279 W/m 12,6 C 24,3 C 6,4 km/h (2 Bft) 100,00 %
28.06.2016 18:50 24,3 C 46 % 1014,6 hPa 0,0 l/m 3,2 km/h (1 Bft) S 169 2 min 0,000 mm 0,7 UV-I 274 W/m 11,9 C 24,3 C 8,0 km/h (2 Bft) 97,87 %
28.06.2016 18:52 24,3 C 48 % 1014,5 hPa 0,0 l/m 3,2 km/h (1 Bft) W-SW 242 2 min 0,000 mm 0,6 UV-I 268 W/m 12,6 C 24,3 C 6,4 km/h (2 Bft) 100,00 %
28.06.2016 18:54 24,3 C 46 % 1014,5 hPa 0,0 l/m 4,2 km/h (1 Bft) W-SW 239 2 min 0,000 mm 0,6 UV-I 263 W/m 11,9 C 24,3 C 6,4 km/h (2 Bft) 100,00 %
28.06.2016 18:56 24,3 C 45 % 1014,5 hPa 0,0 l/m 3,1 km/h (1 Bft) S-SW 204 2 min 0,000 mm 0,6 UV-I 258 W/m 11,6 C 24,3 C 4,8 km/h (1 Bft) 100,00 %
28.06.2016 18:58 24,3 C 46 % 1014,5 hPa 0,0 l/m 2,2 km/h (1 Bft) S-SW 205 2 min 0,000 mm 0,6 UV-I 252 W/m 11,9 C 24,3 C 4,8 km/h (1 Bft) 100,00 %
28.06.2016 19:00 24,3 C 46 % 1014,5 hPa 0,0 l/m 1,6 km/h (1 Bft) S-SW 206 2 min 0,228 mm 0,6 UV-I 247 W/m 11,9 C 24,3 C 3,2 km/h (1 Bft) 100,00 %
28.06.2016 19:02 24,3 C 46 % 1014,5 hPa 0,0 l/m 0,8 km/h (0 Bft) S-SW 206 2 min 0,000 mm 0,5 UV-I 241 W/m 11,9 C 24,3 C 3,2 km/h (1 Bft) 100,00 %
28.06.2016 19:04 24,3 C 48 % 1014,4 hPa 0,0 l/m 2,2 km/h (1 Bft) S-SW 205 2 min 0,000 mm 0,5 UV-I 236 W/m 12,6 C 24,3 C 4,8 km/h (1 Bft) 100,00 %
28.06.2016 19:06 24,2 C 45 % 1014,4 hPa 0,0 l/m 1,3 km/h (1 Bft) S-SW 193 2 min 0,000 mm 0,5 UV-I 229 W/m 11,5 C 24,2 C 3,2 km/h (1 Bft) 100,00 %
28.06.2016 19:08 24,2 C 45 % 1014,4 hPa 0,0 l/m 4,2 km/h (1 Bft) S 188 2 min 0,000 mm 0,5 UV-I 223 W/m 11,5 C 24,2 C 6,4 km/h (2 Bft) 100,00 %
28.06.2016 19:10 24,1 C 44 % 1014,4 hPa 0,0 l/m 3,9 km/h (1 Bft) S-SW 192 2 min 0,000 mm 0,5 UV-I 216 W/m 11,1 C 24,1 C 6,4 km/h (2 Bft) 100,00 %
28.06.2016 19:12 24,1 C 46 % 1014,4 hPa 0,0 l/m 2,9 km/h (1 Bft) SW 222 2 min 0,000 mm 0,0 UV-I 210 W/m 11,7 C 24,1 C 6,4 km/h (2 Bft) 100,00 %
28.06.2016 19:14 24,2 C 47 % 1014,4 hPa 0,0 l/m 4,9 km/h (1 Bft) W-SW 250 2 min 0,000 mm 0,0 UV-I 205 W/m 12,2 C 24,2 C 8,0 km/h (2 Bft) 100,00 %
28.06.2016 19:16 24,2 C 46 % 1014,4 hPa 0,0 l/m 6,3 km/h (2 Bft) SW 232 2 min 0,000 mm 0,0 UV-I 199 W/m 11,8 C 24,2 C 8,0 km/h (2 Bft) 98,00 %
28.06.2016 19:18 24,1 C 48 % 1014,3 hPa 0,0 l/m 4,1 km/h (1 Bft) SW 233 2 min 0,000 mm 0,0 UV-I 193 W/m 12,4 C 24,1 C 8,0 km/h (2 Bft) 100,00 %
28.06.2016 19:20 24,1 C 47 % 1014,2 hPa 0,0 l/m 3,9 km/h (1 Bft) SW 223 2 min 0,000 mm 0,0 UV-I 187 W/m 12,1 C 24,1 C 6,4 km/h (2 Bft) 100,00 %
28.06.2016 19:22 24,1 C 47 % 1014,2 hPa 0,0 l/m 4,5 km/h (1 Bft) S-SW 210 2 min 0,000 mm 0,0 UV-I 182 W/m 12,1 C 24,1 C 6,4 km/h (2 Bft) 100,00 %
28.06.2016 19:24 24,1 C 46 % 1014,2 hPa 0,0 l/m 4,6 km/h (1 Bft) W-SW 253 2 min 0,000 mm 0,0 UV-I 177 W/m 11,7 C 24,1 C 8,0 km/h (2 Bft) 97,87 %
28.06.2016 19:26 24,1 C 48 % 1014,2 hPa 0,0 l/m 2,5 km/h (1 Bft) W-SW 254 2 min 0,000 mm 0,0 UV-I 171 W/m 12,4 C 24,1 C 4,8 km/h (1 Bft) 97,87 %
28.06.2016 19:28 24,1 C 46 % 1014,2 hPa 0,0 l/m 0,8 km/h (0 Bft) W-SW 254 2 min 0,000 mm 0,0 UV-I 165 W/m 11,7 C 24,1 C 3,2 km/h (1 Bft) 100,00 %
28.06.2016 19:30 24,1 C 46 % 1014,2 hPa 0,0 l/m 1,0 km/h (0 Bft) W-SW 254 2 min 0,000 mm 0,0 UV-I 160 W/m 11,7 C 24,1 C 1,6 km/h (1 Bft) 97,87 %
28.06.2016 19:32 24,1 C 46 % 1014,1 hPa 0,0 l/m 2,2 km/h (1 Bft) W-SW 250 2 min 0,000 mm 0,0 UV-I 155 W/m 11,7 C 24,1 C 4,8 km/h (1 Bft) 100,00 %
28.06.2016 19:34 24,0 C 47 % 1014,1 hPa 0,0 l/m 2,9 km/h (1 Bft) S 181 2 min 0,000 mm 0,0 UV-I 149 W/m 12,0 C 24,0 C 6,4 km/h (2 Bft) 100,00 %
28.06.2016 19:36 23,9 C 48 % 1014,2 hPa 0,0 l/m 2,6 km/h (1 Bft) S 177 2 min 0,000 mm 0,0 UV-I 142 W/m 12,2 C 23,9 C 4,8 km/h (1 Bft) 95,74 %
28.06.2016 19:38 23,9 C 47 % 1014,2 hPa 0,0 l/m 3,2 km/h (1 Bft) S-SW 196 2 min 0,000 mm 0,0 UV-I 137 W/m 11,9 C 23,9 C 4,8 km/h (1 Bft) 98,00 %
28.06.2016 19:40 23,9 C 45 % 1014,2 hPa 0,0 l/m 2,9 km/h (1 Bft) S 188 2 min 0,000 mm 0,0 UV-I 132 W/m 11,2 C 23,9 C 6,4 km/h (2 Bft) 95,74 %
28.06.2016 19:42 23,9 C 46 % 1014,1 hPa 0,0 l/m 2,6 km/h (1 Bft) S 188 2 min 0,000 mm 0,0 UV-I 123 W/m 11,6 C 23,9 C 4,8 km/h (1 Bft) 97,14 %
28.06.2016 19:44 23,9 C 47 % 1014,1 hPa 0,0 l/m 2,7 km/h (1 Bft) S 188 2 min 0,000 mm 0,0 UV-I 122 W/m 11,9 C 23,9 C 4,8 km/h (1 Bft) 98,00 %
28.06.2016 19:46 23,8 C 46 % 1014,1 hPa 0,0 l/m 3,2 km/h (1 Bft) S 188 2 min 0,000 mm 0,0 UV-I 114 W/m 11,5 C 23,8 C 4,8 km/h (1 Bft) 95,74 %
28.06.2016 19:48 23,8 C 47 % 1014,1 hPa 0,0 l/m 2,1 km/h (1 Bft) S 188 2 min 0,000 mm 0,0 UV-I 109 W/m 11,8 C 23,8 C 4,8 km/h (1 Bft) 97,92 %
28.06.2016 19:50 23,8 C 45 % 1014,1 hPa 0,0 l/m 1,0 km/h (0 Bft) S 188 2 min 0,000 mm 0,0 UV-I 102 W/m 11,1 C 23,8 C 3,2 km/h (1 Bft) 97,87 %
28.06.2016 19:52 23,9 C 45 % 1014,1 hPa 0,0 l/m 0,1 km/h (0 Bft) S 188 2 min 0,000 mm 0,0 UV-I 98 W/m 11,2 C 23,9 C 1,6 km/h (1 Bft) 95,74 %
28.06.2016 19:54 23,9 C 45 % 1014,1 hPa 0,0 l/m 0,3 km/h (0 Bft) S 188 2 min 0,000 mm 0,0 UV-I 93 W/m 11,2 C 23,9 C 1,6 km/h (1 Bft) 97,87 %
28.06.2016 19:56 23,8 C 45 % 1014,1 hPa 0,0 l/m 0,9 km/h (0 Bft) S 188 2 min 0,000 mm 0,0 UV-I 90 W/m 11,1 C 23,8 C 3,2 km/h (1 Bft) 97,96 %
28.06.2016 19:58 23,8 C 45 % 1014,1 hPa 0,0 l/m 1,8 km/h (1 Bft) S 188 0 min 0,000 mm 0,0 UV-I 85 W/m 11,1 C 23,8 C 3,2 km/h (1 Bft) 97,87 %
28.06.2016 20:00 23,8 C 47 % 1014,1 hPa 0,0 l/m 1,8 km/h (1 Bft) S 188 0 min 0,000 mm 0,0 UV-I 81 W/m 11,8 C 23,8 C 3,2 km/h (1 Bft) 93,62 %
28.06.2016 20:02 23,7 C 54 % 1014,0 hPa 0,0 l/m 0,8 km/h (0 Bft) S 188 0 min 0,127 mm 0,0 UV-I 76 W/m 13,8 C 23,7 C 3,2 km/h (1 Bft) 96,00 %
28.06.2016 20:04 23,5 C 58 % 1014,0 hPa 0,0 l/m 0,1 km/h (0 Bft) S 188 0 min 0,000 mm 0,0 UV-I 71 W/m 14,7 C 23,5 C 1,6 km/h (1 Bft) 97,87 %
28.06.2016 20:06 23,4 C 54 % 1014,1 hPa 0,0 l/m 0,1 km/h (0 Bft) S 188 0 min 0,000 mm 0,0 UV-I 67 W/m 13,6 C 23,4 C 1,6 km/h (1 Bft) 93,62 %
28.06.2016 20:08 23,2 C 57 % 1014,1 hPa 0,0 l/m 0,0 km/h (0 Bft) S 188 0 min 0,000 mm 0,0 UV-I 63 W/m 14,2 C 23,2 C 0,0 km/h (0 Bft) 100,00 %
28.06.2016 20:10 23,1 C 56 % 1014,1 hPa 0,0 l/m 0,1 km/h (0 Bft) S 188 0 min 0,000 mm 0,0 UV-I 60 W/m 13,8 C 23,1 C 1,6 km/h (1 Bft) 95,74 %
28.06.2016 20:12 22,9 C 55 % 1014,1 hPa 0,0 l/m 0,4 km/h (0 Bft) S 188 0 min 0,000 mm 0,0 UV-I 56 W/m 13,4 C 22,9 C 1,6 km/h (1 Bft) 93,62 %
28.06.2016 20:14 22,8 C 60 % 1014,1 hPa 0,0 l/m 0,7 km/h (0 Bft) S 188 0 min 0,000 mm 0,0 UV-I 52 W/m 14,6 C 22,8 C 1,6 km/h (1 Bft) 100,00 %
28.06.2016 20:16 22,6 C 63 % 1014,1 hPa 0,0 l/m 0,3 km/h (0 Bft) S 188 0 min 0,000 mm 0,0 UV-I 48 W/m 15,2 C 22,6 C 1,6 km/h (1 Bft) 100,00 %
28.06.2016 20:18 22,3 C 62 % 1014,0 hPa 0,0 l/m 1,1 km/h (1 Bft) S 188 0 min 0,000 mm 0,0 UV-I 44 W/m 14,7 C 22,3 C 3,2 km/h (1 Bft) 100,00 %
28.06.2016 20:20 22,1 C 63 % 1014,1 hPa 0,0 l/m 1,0 km/h (0 Bft) S 188 0 min 0,000 mm 0,0 UV-I 41 W/m 14,7 C 22,1 C 1,6 km/h (1 Bft) 100,00 %
28.06.2016 20:22 21,8 C 64 % 1014,1 hPa 0,0 l/m 1,6 km/h (1 Bft) S 188 0 min 0,000 mm 0,0 UV-I 38 W/m 14,7 C 21,8 C 3,2 km/h (1 Bft) 96,00 %
28.06.2016 20:24 21,6 C 66 % 1014,1 hPa 0,0 l/m 1,4 km/h (1 Bft) S 188 0 min 0,000 mm 0,0 UV-I 33 W/m 15,0 C 21,6 C 3,2 km/h (1 Bft) 97,87 %
28.06.2016 20:26 21,4 C 67 % 1014,0 hPa 0,0 l/m 2,0 km/h (1 Bft) S 188 0 min 0,000 mm 0,0 UV-I 29 W/m 15,0 C 21,4 C 3,2 km/h (1 Bft) 100,00 %
28.06.2016 20:28 21,2 C 67 % 1014,1 hPa 0,0 l/m 3,0 km/h (1 Bft) S 188 0 min 0,000 mm 0,0 UV-I 22 W/m 14,8 C 21,2 C 4,8 km/h (1 Bft) 100,00 %
28.06.2016 20:30 21,1 C 65 % 1014,0 hPa 0,0 l/m 3,2 km/h (1 Bft) S 188 0 min 0,000 mm 0,0 UV-I 19 W/m 14,3 C 21,1 C 4,8 km/h (1 Bft) 100,00 %
28.06.2016 20:32 20,9 C 68 % 1014,1 hPa 0,0 l/m 2,2 km/h (1 Bft) S 188 0 min 0,000 mm 0,0 UV-I 19 W/m 14,8 C 20,9 C 3,2 km/h (1 Bft) 100,00 %
28.06.2016 20:34 20,8 C 68 % 1014,0 hPa 0,0 l/m 1,3 km/h (1 Bft) S 188 0 min 0,000 mm 0,0 UV-I 18 W/m 14,7 C 20,8 C 1,6 km/h (1 Bft) 100,00 %
28.06.2016 20:36 20,7 C 67 % 1014,0 hPa 0,0 l/m 1,0 km/h (0 Bft) S 188 0 min 0,000 mm 0,0 UV-I 18 W/m 14,3 C 20,7 C 1,6 km/h (1 Bft) 100,00 %
28.06.2016 20:38 20,7 C 65 % 1014,0 hPa 0,0 l/m 0,9 km/h (0 Bft) S 188 0 min 0,000 mm 0,0 UV-I 16 W/m 13,9 C 20,7 C 1,6 km/h (1 Bft) 100,00 %
28.06.2016 20:40 20,6 C 69 % 1014,0 hPa 0,0 l/m 1,0 km/h (0 Bft) S 188 0 min 0,000 mm 0,0 UV-I 16 W/m 14,7 C 20,6 C 1,6 km/h (1 Bft) 100,00 %
28.06.2016 20:42 20,4 C 70 % 1014,0 hPa 0,0 l/m 0,1 km/h (0 Bft) S 188 0 min 0,000 mm 0,0 UV-I 16 W/m 14,7 C 20,4 C 1,6 km/h (1 Bft) 100,00 %
28.06.2016 20:44 20,3 C 71 % 1014,0 hPa 0,0 l/m 1,1 km/h (1 Bft) S 188 0 min 0,000 mm 0,0 UV-I 14 W/m 14,9 C 20,3 C 3,2 km/h (1 Bft) 97,87 %
28.06.2016 20:46 20,2 C 71 % 1013,9 hPa 0,0 l/m 2,4 km/h (1 Bft) S 188 0 min 0,000 mm 0,0 UV-I 14 W/m 14,8 C 20,2 C 3,2 km/h (1 Bft) 97,87 %
28.06.2016 20:48 20,1 C 72 % 1014,0 hPa 0,0 l/m 0,9 km/h (0 Bft) S 188 0 min 0,000 mm 0,0 UV-I 12 W/m 14,9 C 20,1 C 3,2 km/h (1 Bft) 100,00 %
28.06.2016 20:50 19,9 C 70 % 1014,0 hPa 0,0 l/m 0,0 km/h (0 Bft) S 188 0 min 0,000 mm 0,0 UV-I 12 W/m 14,3 C 19,9 C 1,6 km/h (1 Bft) 100,00 %
28.06.2016 20:52 19,9 C 68 % 1014,0 hPa 0,0 l/m 0,2 km/h (0 Bft) S 188 0 min 0,000 mm 0,0 UV-I 11 W/m 13,8 C 19,9 C 1,6 km/h (1 Bft) 100,00 %
28.06.2016 20:54 19,8 C 71 % 1014,0 hPa 0,0 l/m 0,0 km/h (0 Bft) S 188 2 min 0,000 mm 0,0 UV-I 10 W/m 14,4 C 19,8 C 0,0 km/h (0 Bft) 100,00 %
28.06.2016 20:56 19,7 C 71 % 1014,0 hPa 0,0 l/m 0,0 km/h (0 Bft) S 188 0 min 0,000 mm 0,0 UV-I 9 W/m 14,3 C 19,7 C 1,6 km/h (1 Bft) 100,00 %
28.06.2016 20:58 19,6 C 71 % 1014,0 hPa 0,0 l/m 0,5 km/h (0 Bft) S 188 0 min 0,000 mm 0,0 UV-I 8 W/m 14,2 C 19,6 C 1,6 km/h (1 Bft) 97,87 %
28.06.2016 21:00 19,6 C 71 % 1014,0 hPa 0,0 l/m 0,0 km/h (0 Bft) S 188 0 min 0,000 mm 0,0 UV-I 7 W/m 14,2 C 19,6 C 1,6 km/h (1 Bft) 100,00 %
28.06.2016 21:02 19,5 C 70 % 1014,0 hPa 0,0 l/m 0,0 km/h (0 Bft) S 188 0 min 0,026 mm 0,0 UV-I 7 W/m 13,9 C 19,5 C 0,0 km/h (0 Bft) 100,00 %
28.06.2016 21:04 19,4 C 71 % 1014,0 hPa 0,0 l/m 0,0 km/h (0 Bft) S 188 0 min 0,000 mm 0,0 UV-I 5 W/m 14,0 C 19,4 C 0,0 km/h (0 Bft) 100,00 %
28.06.2016 21:06 19,3 C 73 % 1014,0 hPa 0,0 l/m 0,4 km/h (0 Bft) S 188 0 min 0,000 mm 0,0 UV-I 5 W/m 14,3 C 19,3 C 1,6 km/h (1 Bft) 97,92 %
28.06.2016 21:08 19,1 C 76 % 1014,0 hPa 0,0 l/m 2,5 km/h (1 Bft) S 188 0 min 0,000 mm 0,0 UV-I 5 W/m 14,8 C 19,1 C 3,2 km/h (1 Bft) 100,00 %
28.06.2016 21:10 18,8 C 75 % 1014,0 hPa 0,0 l/m 2,8 km/h (1 Bft) S 188 0 min 0,000 mm 0,0 UV-I 4 W/m 14,3 C 18,8 C 3,2 km/h (1 Bft) 97,87 %
28.06.2016 21:12 18,7 C 74 % 1014,0 hPa 0,0 l/m 1,7 km/h (1 Bft) S 188 0 min 0,000 mm 0,0 UV-I 0 W/m 14,0 C 18,7 C 3,2 km/h (1 Bft) 100,00 %
28.06.2016 21:14 18,7 C 74 % 1014,0 hPa 0,0 l/m 0,8 km/h (0 Bft) S 188 0 min 0,000 mm 0,0 UV-I 0 W/m 14,0 C 18,7 C 1,6 km/h (1 Bft) 100,00 %
28.06.2016 21:16 18,6 C 74 % 1014,0 hPa 0,0 l/m 0,1 km/h (0 Bft) S 188 0 min 0,000 mm 0,0 UV-I 0 W/m 13,9 C 18,6 C 1,6 km/h (1 Bft) 100,00 %
28.06.2016 21:18 18,5 C 73 % 1014,1 hPa 0,0 l/m 0,0 km/h (0 Bft) S 188 0 min 0,000 mm 0,0 UV-I 0 W/m 13,6 C 18,5 C 0,0 km/h (0 Bft) 100,00 %
28.06.2016 21:20 18,5 C 70 % 1014,1 hPa 0,0 l/m 0,0 km/h (0 Bft) S 188 0 min 0,000 mm 0,0 UV-I 0 W/m 12,9 C 18,5 C 0,0 km/h (0 Bft) 100,00 %
28.06.2016 21:22 18,6 C 71 % 1014,1 hPa 0,0 l/m 0,0 km/h (0 Bft) S 188 0 min 0,000 mm 0,0 UV-I 0 W/m 13,2 C 18,6 C 0,0 km/h (0 Bft) 100,00 %
28.06.2016 21:24 18,5 C 73 % 1014,2 hPa 0,0 l/m 0,0 km/h (0 Bft) S 188 0 min 0,000 mm 0,0 UV-I 0 W/m 13,6 C 18,5 C 0,0 km/h (0 Bft) 100,00 %
28.06.2016 21:26 18,4 C 75 % 1014,2 hPa 0,0 l/m 0,3 km/h (0 Bft) S 188 0 min 0,000 mm 0,0 UV-I 0 W/m 13,9 C 18,4 C 1,6 km/h (1 Bft) 97,87 %
28.06.2016 21:28 18,3 C 73 % 1014,2 hPa 0,0 l/m 0,2 km/h (0 Bft) S 188 0 min 0,000 mm 0,0 UV-I 0 W/m 13,4 C 18,3 C 1,6 km/h (1 Bft) 100,00 %
28.06.2016 21:30 18,3 C 74 % 1014,2 hPa 0,0 l/m 0,0 km/h (0 Bft) S 188 0 min 0,000 mm 0,0 UV-I 0 W/m 13,6 C 18,3 C 0,0 km/h (0 Bft) 100,00 %
28.06.2016 21:32 18,2 C 75 % 1014,2 hPa 0,0 l/m 0,0 km/h (0 Bft) S 188 0 min 0,000 mm 0,0 UV-I 0 W/m 13,7 C 18,2 C 0,0 km/h (0 Bft) 97,87 %
28.06.2016 21:34 18,1 C 74 % 1014,2 hPa 0,0 l/m 0,0 km/h (0 Bft) S 188 0 min 0,000 mm 0,0 UV-I 0 W/m 13,4 C 18,1 C 0,0 km/h (0 Bft) 100,00 %
28.06.2016 21:36 17,9 C 76 % 1014,2 hPa 0,0 l/m 0,2 km/h (0 Bft) S 188 0 min 0,000 mm 0,0 UV-I 0 W/m 13,6 C 17,9 C 1,6 km/h (1 Bft) 97,87 %
28.06.2016 21:38 17,8 C 76 % 1014,2 hPa 0,0 l/m 0,0 km/h (0 Bft) S 188 0 min 0,000 mm 0,0 UV-I 0 W/m 13,5 C 17,8 C 0,0 km/h (0 Bft) 97,37 %
28.06.2016 21:40 17,7 C 76 % 1014,2 hPa 0,0 l/m 0,0 km/h (0 Bft) S 188 0 min 0,000 mm 0,0 UV-I 0 W/m 13,4 C 17,7 C 0,0 km/h (0 Bft) 97,87 %
28.06.2016 21:42 17,6 C 77 % 1014,2 hPa 0,0 l/m 0,0 km/h (0 Bft) S 188 0 min 0,000 mm 0,0 UV-I 0 W/m 13,5 C 17,6 C 0,0 km/h (0 Bft) 97,87 %
28.06.2016 21:44 17,6 C 77 % 1014,2 hPa 0,0 l/m 0,0 km/h (0 Bft) S 188 0 min 0,000 mm 0,0 UV-I 0 W/m 13,5 C 17,6 C 0,0 km/h (0 Bft) 97,92 %
28.06.2016 21:46 17,6 C 77 % 1014,3 hPa 0,0 l/m 0,0 km/h (0 Bft) S 188 0 min 0,000 mm 0,0 UV-I 0 W/m 13,5 C 17,6 C 0,0 km/h (0 Bft) 97,87 %
28.06.2016 21:48 17,6 C 78 % 1014,2 hPa 0,0 l/m 0,0 km/h (0 Bft) S 188 0 min 0,000 mm 0,0 UV-I 0 W/m 13,7 C 17,6 C 0,0 km/h (0 Bft) 97,87 %
28.06.2016 21:50 17,5 C 78 % 1014,3 hPa 0,0 l/m 0,0 km/h (0 Bft) S 188 0 min 0,000 mm 0,0 UV-I 0 W/m 13,6 C 17,5 C 1,6 km/h (1 Bft) 97,87 %
28.06.2016 21:52 17,5 C 79 % 1014,2 hPa 0,0 l/m 0,0 km/h (0 Bft) S 188 0 min 0,000 mm 0,0 UV-I 0 W/m 13,8 C 17,5 C 0,0 km/h (0 Bft) 95,74 %
28.06.2016 21:54 17,4 C 78 % 1014,3 hPa 0,0 l/m 1,1 km/h (1 Bft) S 177 0 min 0,000 mm 0,0 UV-I 0 W/m 13,5 C 17,4 C 4,8 km/h (1 Bft) 91,49 %
28.06.2016 21:56 17,4 C 77 % 1014,3 hPa 0,0 l/m 2,4 km/h (1 Bft) S 171 0 min 0,000 mm 0,0 UV-I 0 W/m 13,3 C 17,4 C 6,4 km/h (2 Bft) 95,74 %
28.06.2016 21:58 17,4 C 78 % 1014,3 hPa 0,0 l/m 1,2 km/h (1 Bft) S 171 0 min 0,000 mm 0,0 UV-I 0 W/m 13,5 C 17,4 C 3,2 km/h (1 Bft) 97,87 %
28.06.2016 22:00 17,4 C 79 % 1014,2 hPa 0,0 l/m 0,6 km/h (0 Bft) S 171 0 min 0,000 mm 0,0 UV-I 0 W/m 13,7 C 17,4 C 1,6 km/h (1 Bft) 97,87 %
28.06.2016 22:02 17,3 C 78 % 1014,2 hPa 0,0 l/m 0,5 km/h (0 Bft) S 171 0 min 0,000 mm 0,0 UV-I 0 W/m 13,4 C 17,3 C 1,6 km/h (1 Bft) 97,92 %
28.06.2016 22:04 17,3 C 77 % 1014,3 hPa 0,0 l/m 1,4 km/h (1 Bft) S 171 0 min 0,000 mm 0,0 UV-I 0 W/m 13,2 C 17,3 C 3,2 km/h (1 Bft) 93,62 %
28.06.2016 22:06 17,4 C 77 % 1014,2 hPa 0,0 l/m 1,3 km/h (1 Bft) S 171 0 min 0,000 mm 0,0 UV-I 0 W/m 13,3 C 17,4 C 3,2 km/h (1 Bft) 97,87 %
28.06.2016 22:08 17,4 C 77 % 1014,3 hPa 0,0 l/m 0,9 km/h (0 Bft) S 171 0 min 0,000 mm 0,0 UV-I 0 W/m 13,3 C 17,4 C 3,2 km/h (1 Bft) 97,87 %
28.06.2016 22:10 17,4 C 78 % 1014,2 hPa 0,0 l/m 0,1 km/h (0 Bft) S 171 0 min 0,000 mm 0,0 UV-I 0 W/m 13,5 C 17,4 C 1,6 km/h (1 Bft) 95,74 %
28.06.2016 22:12 17,3 C 78 % 1014,2 hPa 0,0 l/m 0,0 km/h (0 Bft) S 171 0 min 0,000 mm 0,0 UV-I 0 W/m 13,4 C 17,3 C 1,6 km/h (1 Bft) 95,83 %
28.06.2016 22:14 17,3 C 78 % 1014,2 hPa 0,0 l/m 0,0 km/h (0 Bft) S 171 0 min 0,000 mm 0,0 UV-I 0 W/m 13,4 C 17,3 C 0,0 km/h (0 Bft) 95,74 %
28.06.2016 22:16 17,3 C 77 % 1014,2 hPa 0,0 l/m 0,1 km/h (0 Bft) S 171 0 min 0,000 mm 0,0 UV-I 0 W/m 13,2 C 17,3 C 1,6 km/h (1 Bft) 98,00 %
28.06.2016 22:18 17,4 C 77 % 1014,2 hPa 0,0 l/m 0,6 km/h (0 Bft) S 171 0 min 0,000 mm 0,0 UV-I 0 W/m 13,3 C 17,4 C 1,6 km/h (1 Bft) 93,62 %
28.06.2016 22:20 17,3 C 78 % 1014,2 hPa 0,0 l/m 0,4 km/h (0 Bft) S 171 0 min 0,000 mm 0,0 UV-I 0 W/m 13,4 C 17,3 C 1,6 km/h (1 Bft) 97,87 %
28.06.2016 22:22 17,3 C 79 % 1014,2 hPa 0,0 l/m 0,4 km/h (0 Bft) S 171 0 min 0,000 mm 0,0 UV-I 0 W/m 13,6 C 17,3 C 3,2 km/h (1 Bft) 100,00 %
28.06.2016 22:24 17,2 C 80 % 1014,2 hPa 0,0 l/m 2,2 km/h (1 Bft) S 170 0 min 0,000 mm 0,0 UV-I 0 W/m 13,7 C 17,2 C 3,2 km/h (1 Bft) 100,00 %
28.06.2016 22:26 17,1 C 80 % 1014,2 hPa 0,0 l/m 2,7 km/h (1 Bft) S-SO 161 0 min 0,000 mm 0,0 UV-I 0 W/m 13,6 C 17,1 C 6,4 km/h (2 Bft) 100,00 %
28.06.2016 22:28 17,0 C 80 % 1014,2 hPa 0,0 l/m 0,5 km/h (0 Bft) S-SO 161 0 min 0,000 mm 0,0 UV-I 0 W/m 13,5 C 17,0 C 1,6 km/h (1 Bft) 97,87 %
28.06.2016 22:30 16,9 C 81 % 1014,1 hPa 0,0 l/m 1,4 km/h (1 Bft) S-SO 161 0 min 0,000 mm 0,0 UV-I 0 W/m 13,6 C 16,9 C 3,2 km/h (1 Bft) 100,00 %
28.06.2016 22:32 16,8 C 81 % 1014,2 hPa 0,0 l/m 1,1 km/h (1 Bft) S-SO 161 0 min 0,000 mm 0,0 UV-I 0 W/m 13,5 C 16,8 C 1,6 km/h (1 Bft) 100,00 %
28.06.2016 22:34 16,7 C 81 % 1014,1 hPa 0,0 l/m 1,0 km/h (0 Bft) S-SO 161 0 min 0,000 mm 0,0 UV-I 0 W/m 13,4 C 16,7 C 1,6 km/h (1 Bft) 97,87 %
28.06.2016 22:36 16,7 C 80 % 1014,1 hPa 0,0 l/m 1,1 km/h (1 Bft) S-SO 161 0 min 0,000 mm 0,0 UV-I 0 W/m 13,2 C 16,7 C 3,2 km/h (1 Bft) 100,00 %
28.06.2016 22:38 16,7 C 80 % 1014,1 hPa 0,0 l/m 0,8 km/h (0 Bft) S-SO 161 0 min 0,000 mm 0,0 UV-I 0 W/m 13,2 C 16,7 C 1,6 km/h (1 Bft) 97,87 %
28.06.2016 22:40 16,7 C 80 % 1014,1 hPa 0,0 l/m 0,7 km/h (0 Bft) S-SO 161 0 min 0,000 mm 0,0 UV-I 0 W/m 13,2 C 16,7 C 1,6 km/h (1 Bft) 100,00 %
28.06.2016 22:42 16,7 C 81 % 1014,2 hPa 0,0 l/m 1,1 km/h (1 Bft) S-SO 161 0 min 0,000 mm 0,0 UV-I 0 W/m 13,4 C 16,7 C 3,2 km/h (1 Bft) 95,74 %
28.06.2016 22:44 16,7 C 81 % 1014,2 hPa 0,0 l/m 1,9 km/h (1 Bft) S-SO 161 0 min 0,000 mm 0,0 UV-I 0 W/m 13,4 C 16,7 C 3,2 km/h (1 Bft) 98,00 %
28.06.2016 22:46 16,7 C 82 % 1014,2 hPa 0,0 l/m 2,3 km/h (1 Bft) S-SO 161 0 min 0,000 mm 0,0 UV-I 0 W/m 13,6 C 16,7 C 3,2 km/h (1 Bft) 100,00 %
28.06.2016 22:48 16,6 C 81 % 1014,2 hPa 0,0 l/m 0,8 km/h (0 Bft) S-SO 161 0 min 0,000 mm 0,0 UV-I 0 W/m 13,3 C 16,6 C 3,2 km/h (1 Bft) 100,00 %
28.06.2016 22:50 16,6 C 82 % 1014,2 hPa 0,0 l/m 0,8 km/h (0 Bft) S-SO 161 0 min 0,000 mm 0,0 UV-I 0 W/m 13,5 C 16,6 C 3,2 km/h (1 Bft) 97,87 %
28.06.2016 22:52 16,5 C 82 % 1014,2 hPa 0,0 l/m 0,8 km/h (0 Bft) S-SO 161 0 min 0,000 mm 0,0 UV-I 0 W/m 13,4 C 16,5 C 1,6 km/h (1 Bft) 97,87 %
28.06.2016 22:54 16,4 C 82 % 1014,2 hPa 0,0 l/m 0,3 km/h (0 Bft) S-SO 161 0 min 0,000 mm 0,0 UV-I 0 W/m 13,3 C 16,4 C 1,6 km/h (1 Bft) 100,00 %
28.06.2016 22:56 16,3 C 82 % 1014,2 hPa 0,0 l/m 0,0 km/h (0 Bft) S-SO 161 0 min 0,000 mm 0,0 UV-I 0 W/m 13,2 C 16,3 C 0,0 km/h (0 Bft) 97,14 %
28.06.2016 22:58 16,3 C 82 % 1014,2 hPa 0,0 l/m 1,4 km/h (1 Bft) S-SO 161 0 min 0,000 mm 0,0 UV-I 0 W/m 13,2 C 16,3 C 3,2 km/h (1 Bft) 100,00 %
28.06.2016 23:00 16,2 C 83 % 1014,2 hPa 0,0 l/m 1,9 km/h (1 Bft) S-SO 161 0 min 0,000 mm 0,0 UV-I 0 W/m 13,3 C 16,2 C 3,2 km/h (1 Bft) 95,83 %
28.06.2016 23:02 16,2 C 83 % 1014,2 hPa 0,0 l/m 1,7 km/h (1 Bft) S-SO 161 0 min 0,000 mm 0,0 UV-I 0 W/m 13,3 C 16,2 C 3,2 km/h (1 Bft) 98,04 %
28.06.2016 23:04 16,2 C 83 % 1014,2 hPa 0,0 l/m 1,9 km/h (1 Bft) S-SO 161 0 min 0,000 mm 0,0 UV-I 0 W/m 13,3 C 16,2 C 3,2 km/h (1 Bft) 95,83 %
28.06.2016 23:06 16,2 C 82 % 1014,2 hPa 0,0 l/m 1,7 km/h (1 Bft) S-SO 161 0 min 0,000 mm 0,0 UV-I 0 W/m 13,1 C 16,2 C 6,4 km/h (2 Bft) 97,87 %
28.06.2016 23:08 16,3 C 82 % 1014,2 hPa 0,0 l/m 2,5 km/h (1 Bft) S-SO 160 0 min 0,000 mm 0,0 UV-I 0 W/m 13,2 C 16,3 C 6,4 km/h (2 Bft) 97,87 %
28.06.2016 23:10 16,3 C 81 % 1014,2 hPa 0,0 l/m 2,9 km/h (1 Bft) S-SO 159 0 min 0,000 mm 0,0 UV-I 0 W/m 13,0 C 16,3 C 6,4 km/h (2 Bft) 100,00 %
28.06.2016 23:12 16,4 C 81 % 1014,2 hPa 0,0 l/m 1,8 km/h (1 Bft) S-SO 159 0 min 0,000 mm 0,0 UV-I 0 W/m 13,1 C 16,4 C 3,2 km/h (1 Bft) 100,00 %
28.06.2016 23:14 16,3 C 81 % 1014,2 hPa 0,0 l/m 1,3 km/h (1 Bft) S-SO 159 0 min 0,000 mm 0,0 UV-I 0 W/m 13,0 C 16,3 C 3,2 km/h (1 Bft) 97,87 %
28.06.2016 23:16 16,3 C 80 % 1014,2 hPa 0,0 l/m 1,5 km/h (1 Bft) S-SO 159 0 min 0,000 mm 0,0 UV-I 0 W/m 12,8 C 16,3 C 3,2 km/h (1 Bft) 100,00 %
28.06.2016 23:18 16,2 C 81 % 1014,2 hPa 0,0 l/m 2,1 km/h (1 Bft) S-SO 159 0 min 0,000 mm 0,0 UV-I 0 W/m 12,9 C 16,2 C 3,2 km/h (1 Bft) 100,00 %
28.06.2016 23:20 16,1 C 81 % 1014,2 hPa 0,0 l/m 1,9 km/h (1 Bft) S-SO 159 0 min 0,000 mm 0,0 UV-I 0 W/m 12,8 C 16,1 C 3,2 km/h (1 Bft) 100,00 %
28.06.2016 23:22 16,0 C 82 % 1014,2 hPa 0,0 l/m 1,8 km/h (1 Bft) S-SO 159 0 min 0,000 mm 0,0 UV-I 0 W/m 12,9 C 16,0 C 3,2 km/h (1 Bft) 97,96 %
28.06.2016 23:24 15,9 C 82 % 1014,2 hPa 0,0 l/m 1,4 km/h (1 Bft) S-SO 159 0 min 0,000 mm 0,0 UV-I 0 W/m 12,8 C 15,9 C 3,2 km/h (1 Bft) 97,87 %
28.06.2016 23:26 15,9 C 82 % 1014,2 hPa 0,0 l/m 1,5 km/h (1 Bft) S-SO 159 0 min 0,000 mm 0,0 UV-I 0 W/m 12,8 C 15,9 C 1,6 km/h (1 Bft) 100,00 %
28.06.2016 23:28 15,9 C 83 % 1014,2 hPa 0,0 l/m 1,7 km/h (1 Bft) S-SO 159 0 min 0,000 mm 0,0 UV-I 0 W/m 13,0 C 15,9 C 3,2 km/h (1 Bft) 100,00 %
28.06.2016 23:30 15,8 C 83 % 1014,2 hPa 0,0 l/m 1,4 km/h (1 Bft) S-SO 159 0 min 0,000 mm 0,0 UV-I 0 W/m 12,9 C 15,8 C 3,2 km/h (1 Bft) 98,00 %
28.06.2016 23:32 15,8 C 83 % 1014,2 hPa 0,0 l/m 1,5 km/h (1 Bft) S-SO 159 0 min 0,000 mm 0,0 UV-I 0 W/m 12,9 C 15,8 C 3,2 km/h (1 Bft) 97,87 %
28.06.2016 23:34 15,8 C 83 % 1014,3 hPa 0,0 l/m 1,8 km/h (1 Bft) S-SO 159 0 min 0,000 mm 0,0 UV-I 0 W/m 12,9 C 15,8 C 3,2 km/h (1 Bft) 95,74 %
28.06.2016 23:36 15,8 C 83 % 1014,3 hPa 0,0 l/m 1,7 km/h (1 Bft) S-SO 159 0 min 0,000 mm 0,0 UV-I 0 W/m 12,9 C 15,8 C 3,2 km/h (1 Bft) 100,00 %
28.06.2016 23:38 15,8 C 83 % 1014,2 hPa 0,0 l/m 1,5 km/h (1 Bft) S-SO 159 0 min 0,000 mm 0,0 UV-I 0 W/m 12,9 C 15,8 C 3,2 km/h (1 Bft) 97,96 %
28.06.2016 23:40 15,7 C 83 % 1014,2 hPa 0,0 l/m 1,5 km/h (1 Bft) S-SO 159 0 min 0,000 mm 0,0 UV-I 0 W/m 12,8 C 15,7 C 3,2 km/h (1 Bft) 100,00 %
28.06.2016 23:42 15,7 C 83 % 1014,2 hPa 0,0 l/m 1,6 km/h (1 Bft) S-SO 159 0 min 0,000 mm 0,0 UV-I 0 W/m 12,8 C 15,7 C 3,2 km/h (1 Bft) 97,87 %
28.06.2016 23:44 15,7 C 83 % 1014,2 hPa 0,0 l/m 1,6 km/h (1 Bft) S-SO 159 0 min 0,000 mm 0,0 UV-I 0 W/m 12,8 C 15,7 C 3,2 km/h (1 Bft) 100,00 %
28.06.2016 23:46 15,7 C 83 % 1014,1 hPa 0,0 l/m 1,2 km/h (1 Bft) S-SO 159 0 min 0,000 mm 0,0 UV-I 0 W/m 12,8 C 15,7 C 1,6 km/h (1 Bft) 94,00 %
28.06.2016 23:48 15,7 C 83 % 1014,1 hPa 0,0 l/m 0,1 km/h (0 Bft) S-SO 159 0 min 0,000 mm 0,0 UV-I 0 W/m 12,8 C 15,7 C 1,6 km/h (1 Bft) 97,87 %
28.06.2016 23:50 15,7 C 83 % 1014,1 hPa 0,0 l/m 0,0 km/h (0 Bft) S-SO 159 0 min 0,000 mm 0,0 UV-I 0 W/m 12,8 C 15,7 C 0,0 km/h (0 Bft) 97,87 %
28.06.2016 23:52 15,7 C 84 % 1014,1 hPa 0,0 l/m 1,0 km/h (0 Bft) S-SO 159 0 min 0,000 mm 0,0 UV-I 0 W/m 13,0 C 15,7 C 3,2 km/h (1 Bft) 93,62 %
28.06.2016 23:54 15,7 C 84 % 1014,1 hPa 0,0 l/m 1,7 km/h (1 Bft) S-SO 159 0 min 0,000 mm 0,0 UV-I 0 W/m 13,0 C 15,7 C 3,2 km/h (1 Bft) 97,87 %
28.06.2016 23:56 15,6 C 85 % 1014,1 hPa 0,0 l/m 2,0 km/h (1 Bft) S-SO 159 0 min 0,000 mm 0,0 UV-I 0 W/m 13,1 C 15,6 C 3,2 km/h (1 Bft) 95,74 %
28.06.2016 23:58 15,6 C 85 % 1014,1 hPa 0,0 l/m 1,5 km/h (1 Bft) S-SO 159 0 min 0,000 mm 0,0 UV-I 0 W/m 13,1 C 15,6 C 3,2 km/h (1 Bft) 97,44 %
_ Min-Zeit 05:10 17:30 20:46 - 20:08 - - - - - - 19:10 05:30 20:08 16:16
Minimum _ 14,6 C 43 % 1013,9 hPa - 0,0 km/h (0 Bft) - - - - - - 11,1 C 12,4 C 0,0 km/h (0 Bft) 91,49 %
_ Max-Zeit 16:58 04:58 00:34 00:00 15:30 - - 05:20 14:00 13:12 12:02 12:38 17:36 15:30 00:04
Maximum _ 24,7 C 89 % 1018,9 hPa 0,0 l/m 15,4 km/h
SW (3 Bft)
- - 2 min 0,534 mm 7,7 UV-I 1094 W/m 15,8 C 24,7 C 25,7 km/h
SW (4 Bft)
100,00 %
Durchschnitt _ 19,4 C 70 % 1016,9 hPa #0,0 l/m 5,6 km/h (1 Bft) SW - #10:04 h #4,877 mm 3,7 UV-I 442 W/m 13,3 C 19,1 C 9,6 km/h (2 Bft) 98,32 %